Time,TemperatureF,DewpointF,PressureIn,WindDirection,WindDirectionDegrees,WindSpeedMPH,WindSpeedGustMPH,Humidity,HourlyPrecipIn,Conditions,Clouds,dailyrainin,SoftwareType,DateUTC
2013-03-11 00:01:00,55.4,39.5,29.81,ESE,107,6.0,6.0,55,0.00,,,0.00,Wunderground v.1.15,2013-03-11 04:01:00,
2013-03-11 00:03:00,55.3,39.4,29.81,East,92,6.0,7.0,55,0.00,,,0.00,Wunderground v.1.15,2013-03-11 04:03:00,
2013-03-11 00:07:00,55.3,39.4,29.81,SSE,154,5.0,7.0,55,0.00,,,0.00,Wunderground v.1.15,2013-03-11 04:07:00,
2013-03-11 00:08:00,55.2,39.3,29.81,SE,135,5.0,7.0,55,0.00,,,0.00,Wunderground v.1.15,2013-03-11 04:08:00,
2013-03-11 00:09:00,55.1,39.2,29.81,SE,139,6.0,6.0,55,0.00,,,0.00,Wunderground v.1.15,2013-03-11 04:09:00,
2013-03-11 00:13:00,55.0,39.1,29.82,South,173,6.0,10.0,55,0.00,,,0.00,Wunderground v.1.15,2013-03-11 04:13:00,
2013-03-11 00:17:00,54.9,39.5,29.82,SSW,199,6.0,10.0,56,0.00,,,0.00,Wunderground v.1.15,2013-03-11 04:17:00,
2013-03-11 00:22:00,54.7,39.3,29.82,SSW,196,6.0,7.0,56,0.00,,,0.00,Wunderground v.1.15,2013-03-11 04:22:00,
2013-03-11 00:23:00,54.7,39.3,29.82,South,172,6.0,7.0,56,0.00,,,0.00,Wunderground v.1.15,2013-03-11 04:23:00,
2013-03-11 00:25:00,54.6,39.2,29.82,SSW,203,6.0,8.0,56,0.00,,,0.00,Wunderground v.1.15,2013-03-11 04:25:00,
2013-03-11 00:28:00,54.6,39.2,29.81,South,172,6.0,8.0,56,0.00,,,0.00,Wunderground v.1.15,2013-03-11 04:28:00,
2013-03-11 00:29:00,54.7,39.3,29.82,South,176,6.0,6.0,56,0.00,,,0.00,Wunderground v.1.15,2013-03-11 04:29:00,
2013-03-11 00:33:00,54.5,39.1,29.82,WSW,251,5.0,6.0,56,0.00,,,0.00,Wunderground v.1.15,2013-03-11 04:33:00,
2013-03-11 00:34:00,54.4,39.5,29.83,SW,218,5.0,8.0,57,0.00,,,0.00,Wunderground v.1.15,2013-03-11 04:34:00,
2013-03-11 00:35:00,54.4,39.5,29.83,SW,216,5.0,8.0,57,0.00,,,0.00,Wunderground v.1.15,2013-03-11 04:35:00,
2013-03-11 00:37:00,54.1,39.2,29.83,SSW,193,5.0,8.0,57,0.00,,,0.00,Wunderground v.1.15,2013-03-11 04:37:00,
2013-03-11 00:41:00,54.1,39.2,29.83,SSE,166,6.0,9.0,57,0.00,,,0.00,Wunderground v.1.15,2013-03-11 04:41:00,
2013-03-11 00:42:00,54.1,39.2,29.83,SE,144,7.0,10.0,57,0.00,,,0.00,Wunderground v.1.15,2013-03-11 04:42:00,
2013-03-11 00:44:00,54.2,39.3,29.83,SSE,150,7.0,10.0,57,0.00,,,0.00,Wunderground v.1.15,2013-03-11 04:44:00,
2013-03-11 00:47:00,54.3,39.4,29.82,South,180,8.0,10.0,57,0.00,,,0.00,Wunderground v.1.15,2013-03-11 04:47:00,
2013-03-11 00:48:00,54.3,39.4,29.82,SSW,207,8.0,10.0,57,0.00,,,0.00,Wunderground v.1.15,2013-03-11 04:48:00,
2013-03-11 00:52:00,54.4,39.5,29.82,SSW,203,7.0,7.0,57,0.00,,,0.00,Wunderground v.1.15,2013-03-11 04:52:00,
2013-03-11 00:54:00,54.4,39.5,29.82,South,183,6.0,7.0,57,0.00,,,0.00,Wunderground v.1.15,2013-03-11 04:54:00,
2013-03-11 00:55:00,54.4,39.5,29.82,South,183,6.0,7.0,57,0.00,,,0.00,Wunderground v.1.15,2013-03-11 04:55:00,
2013-03-11 00:57:00,54.5,39.6,29.82,SSW,204,6.0,7.0,57,0.00,,,0.00,Wunderground v.1.15,2013-03-11 04:57:00,
2013-03-11 00:58:00,54.6,39.7,29.82,South,173,6.0,7.0,57,0.00,,,0.00,Wunderground v.1.15,2013-03-11 04:58:00,
2013-03-11 01:01:00,54.6,39.7,29.82,South,186,7.0,8.0,57,0.00,,,0.00,Wunderground v.1.15,2013-03-11 05:01:00,
2013-03-11 01:02:00,54.7,39.8,29.82,South,182,7.0,8.0,57,0.00,,,0.00,Wunderground v.1.15,2013-03-11 05:02:00,
2013-03-11 01:06:00,54.6,39.7,29.82,SSE,161,7.0,8.0,57,0.00,,,0.00,Wunderground v.1.15,2013-03-11 05:06:00,
2013-03-11 01:07:00,54.6,39.7,29.82,SSE,161,7.0,8.0,57,0.00,,,0.00,Wunderground v.1.15,2013-03-11 05:07:00,
2013-03-11 01:09:00,54.5,39.6,29.81,SE,139,7.0,7.0,57,0.00,,,0.00,Wunderground v.1.15,2013-03-11 05:09:00,
2013-03-11 01:11:00,54.4,39.9,29.81,SSE,147,7.0,8.0,58,0.00,,,0.00,Wunderground v.1.15,2013-03-11 05:11:00,
2013-03-11 01:14:00,54.3,39.8,29.81,SSE,154,7.0,8.0,58,0.00,,,0.00,Wunderground v.1.15,2013-03-11 05:14:00,
2013-03-11 01:15:00,54.3,39.8,29.81,SE,146,7.0,8.0,58,0.00,,,0.00,Wunderground v.1.15,2013-03-11 05:15:00,
2013-03-11 01:16:00,54.3,39.8,29.81,SSE,147,7.0,8.0,58,0.00,,,0.00,Wunderground v.1.15,2013-03-11 05:16:00,
2013-03-11 01:19:00,54.3,39.8,29.80,SE,141,7.0,7.0,58,0.00,,,0.00,Wunderground v.1.15,2013-03-11 05:19:00,
2013-03-11 01:21:00,54.3,39.8,29.80,South,182,7.0,7.0,58,0.00,,,0.00,Wunderground v.1.15,2013-03-11 05:21:00,
2013-03-11 01:22:00,54.3,39.8,29.80,SSE,147,6.0,7.0,58,0.00,,,0.00,Wunderground v.1.15,2013-03-11 05:22:00,
2013-03-11 01:26:00,54.2,39.7,29.79,SSE,158,5.0,7.0,58,0.00,,,0.00,Wunderground v.1.15,2013-03-11 05:26:00,
2013-03-11 01:27:00,54.2,39.7,29.79,South,175,5.0,7.0,58,0.00,,,0.00,Wunderground v.1.15,2013-03-11 05:27:00,
2013-03-11 01:28:00,54.2,40.2,29.79,SE,144,5.0,7.0,59,0.00,,,0.00,Wunderground v.1.15,2013-03-11 05:28:00,
2013-03-11 01:30:00,54.2,40.2,29.79,South,183,5.0,5.0,59,0.00,,,0.00,Wunderground v.1.15,2013-03-11 05:30:00,
2013-03-11 01:32:00,54.2,40.2,29.79,SSW,196,5.0,5.0,59,0.00,,,0.00,Wunderground v.1.15,2013-03-11 05:32:00,
2013-03-11 01:35:00,54.3,40.3,29.79,South,191,5.0,6.0,59,0.00,,,0.00,Wunderground v.1.15,2013-03-11 05:35:00,
2013-03-11 01:38:00,54.3,40.3,29.79,South,182,6.0,7.0,59,0.00,,,0.00,Wunderground v.1.15,2013-03-11 05:38:00,
2013-03-11 01:40:00,54.1,40.1,29.79,South,187,6.0,6.0,59,0.00,,,0.00,Wunderground v.1.15,2013-03-11 05:40:00,
2013-03-11 01:42:00,54.1,40.1,29.78,South,184,6.0,8.0,59,0.00,,,0.00,Wunderground v.1.15,2013-03-11 05:42:00,
2013-03-11 01:45:00,54.1,40.5,29.78,SSW,207,6.0,8.0,60,0.00,,,0.00,Wunderground v.1.15,2013-03-11 05:45:00,
2013-03-11 01:46:00,54.1,40.5,29.78,SSW,203,6.0,8.0,60,0.00,,,0.00,Wunderground v.1.15,2013-03-11 05:46:00,
2013-03-11 01:50:00,54.2,40.6,29.78,South,182,6.0,7.0,60,0.00,,,0.00,Wunderground v.1.15,2013-03-11 05:50:00,
2013-03-11 01:51:00,54.2,40.6,29.78,SW,224,6.0,8.0,60,0.00,,,0.00,Wunderground v.1.15,2013-03-11 05:51:00,
2013-03-11 01:52:00,54.2,40.6,29.78,SSW,203,6.0,8.0,60,0.00,,,0.00,Wunderground v.1.15,2013-03-11 05:52:00,
2013-03-11 01:55:00,54.2,40.6,29.78,SW,223,7.0,8.0,60,0.00,,,0.00,Wunderground v.1.15,2013-03-11 05:55:00,
2013-03-11 01:58:00,54.2,40.6,29.78,SW,214,7.0,9.0,60,0.00,,,0.00,Wunderground v.1.15,2013-03-11 05:58:00,
2013-03-11 01:59:00,54.2,40.6,29.78,SSW,200,7.0,8.0,60,0.00,,,0.00,Wunderground v.1.15,2013-03-11 05:59:00,
2013-03-11 02:01:00,54.2,40.6,29.78,SW,223,7.0,10.0,60,0.00,,,0.00,Wunderground v.1.15,2013-03-11 06:01:00,
2013-03-11 02:02:00,54.2,40.6,29.78,SW,216,8.0,10.0,60,0.00,,,0.00,Wunderground v.1.15,2013-03-11 06:02:00,
2013-03-11 02:06:00,54.1,40.9,29.78,SSW,209,8.0,10.0,61,0.00,,,0.00,Wunderground v.1.15,2013-03-11 06:06:00,
2013-03-11 02:09:00,54.1,40.9,29.78,SSW,209,8.0,8.0,61,0.00,,,0.00,Wunderground v.1.15,2013-03-11 06:09:00,
2013-03-11 02:11:00,54.2,41.0,29.78,SSW,203,8.0,8.0,61,0.00,,,0.00,Wunderground v.1.15,2013-03-11 06:11:00,
2013-03-11 02:12:00,54.2,41.0,29.78,South,182,8.0,8.0,61,0.00,,,0.00,Wunderground v.1.15,2013-03-11 06:12:00,
2013-03-11 02:15:00,54.3,41.1,29.78,SSW,209,8.0,10.0,61,0.00,,,0.00,Wunderground v.1.15,2013-03-11 06:15:00,
2013-03-11 02:16:00,54.3,41.1,29.78,SSW,206,8.0,10.0,61,0.00,,,0.00,Wunderground v.1.15,2013-03-11 06:16:00,
2013-03-11 02:17:00,54.3,41.1,29.78,SSW,199,8.0,10.0,61,0.00,,,0.00,Wunderground v.1.15,2013-03-11 06:17:00,
2013-03-11 02:18:00,54.3,41.1,29.78,SSW,209,8.0,10.0,61,0.00,,,0.00,Wunderground v.1.15,2013-03-11 06:18:00,
2013-03-11 02:22:00,54.5,41.3,29.77,SW,216,8.0,11.0,61,0.00,,,0.00,Wunderground v.1.15,2013-03-11 06:22:00,
2013-03-11 02:24:00,54.5,41.3,29.77,SSW,204,9.0,11.0,61,0.00,,,0.00,Wunderground v.1.15,2013-03-11 06:24:00,
2013-03-11 02:25:00,54.5,41.3,29.77,SSW,211,9.0,11.0,61,0.00,,,0.00,Wunderground v.1.15,2013-03-11 06:25:00,
2013-03-11 02:27:00,54.6,41.8,29.77,SSW,201,9.0,11.0,62,0.00,,,0.00,Wunderground v.1.15,2013-03-11 06:27:00,
2013-03-11 02:30:00,54.7,41.5,29.77,SSW,213,9.0,10.0,61,0.00,,,0.00,Wunderground v.1.15,2013-03-11 06:30:00,
2013-03-11 02:32:00,54.7,41.9,29.77,SSW,192,9.0,10.0,62,0.00,,,0.00,Wunderground v.1.15,2013-03-11 06:32:00,
2013-03-11 02:33:00,54.6,41.8,29.76,SSE,165,9.0,10.0,62,0.00,,,0.00,Wunderground v.1.15,2013-03-11 06:33:00,
2013-03-11 02:35:00,54.5,41.7,29.76,South,186,8.0,10.0,62,0.00,,,0.00,Wunderground v.1.15,2013-03-11 06:35:00,
2013-03-11 02:38:00,54.3,42.0,29.76,SE,143,8.0,11.0,63,0.00,,,0.00,Wunderground v.1.15,2013-03-11 06:38:00,
2013-03-11 02:39:00,54.2,41.9,29.76,SE,145,8.0,10.0,63,0.00,,,0.00,Wunderground v.1.15,2013-03-11 06:39:00,
2013-03-11 02:42:00,54.1,42.2,29.76,SE,128,9.0,11.0,64,0.00,,,0.00,Wunderground v.1.15,2013-03-11 06:42:00,
2013-03-11 02:44:00,54.2,41.9,29.76,SSE,164,9.0,12.0,63,0.00,,,0.00,Wunderground v.1.15,2013-03-11 06:44:00,
2013-03-11 02:47:00,54.2,41.9,29.76,SSE,147,10.0,12.0,63,0.00,,,0.00,Wunderground v.1.15,2013-03-11 06:47:00,
2013-03-11 02:48:00,54.2,41.9,29.76,SE,143,10.0,15.0,63,0.00,,,0.00,Wunderground v.1.15,2013-03-11 06:48:00,
2013-03-11 02:50:00,54.3,42.0,29.76,SE,145,11.0,11.0,63,0.00,,,0.00,Wunderground v.1.15,2013-03-11 06:50:00,
2013-03-11 02:52:00,54.3,42.0,29.75,SSE,150,11.0,12.0,63,0.00,,,0.00,Wunderground v.1.15,2013-03-11 06:52:00,
2013-03-11 02:53:00,54.3,42.0,29.76,SSE,158,11.0,13.0,63,0.00,,,0.00,Wunderground v.1.15,2013-03-11 06:53:00,
2013-03-11 02:54:00,54.3,42.4,29.75,SE,141,11.0,13.0,64,0.00,,,0.00,Wunderground v.1.15,2013-03-11 06:54:00,
2013-03-11 02:57:00,54.3,42.0,29.76,South,187,11.0,16.0,63,0.00,,,0.00,Wunderground v.1.15,2013-03-11 06:57:00,
2013-03-11 03:01:00,54.1,42.2,29.75,South,182,11.0,11.0,64,0.00,,,0.00,Wunderground v.1.15,2013-03-11 07:01:00,
2013-03-11 03:03:00,54.1,42.2,29.75,SE,145,11.0,13.0,64,0.00,,,0.00,Wunderground v.1.15,2013-03-11 07:03:00,
2013-03-11 03:06:00,54.2,42.3,29.75,SE,140,10.0,13.0,64,0.00,,,0.00,Wunderground v.1.15,2013-03-11 07:06:00,
2013-03-11 03:08:00,54.3,42.4,29.75,SE,128,11.0,15.0,64,0.00,,,0.00,Wunderground v.1.15,2013-03-11 07:08:00,
2013-03-11 03:10:00,54.3,42.4,29.75,SSE,164,10.0,11.0,64,0.00,,,0.00,Wunderground v.1.15,2013-03-11 07:10:00,
2013-03-11 03:11:00,54.3,42.4,29.75,SE,143,10.0,12.0,64,0.00,,,0.00,Wunderground v.1.15,2013-03-11 07:11:00,
2013-03-11 03:14:00,54.2,42.3,29.75,ESE,119,9.0,12.0,64,0.00,,,0.00,Wunderground v.1.15,2013-03-11 07:14:00,
2013-03-11 03:16:00,54.2,42.3,29.75,SE,135,9.0,12.0,64,0.00,,,0.00,Wunderground v.1.15,2013-03-11 07:16:00,
2013-03-11 03:17:00,54.1,42.2,29.75,ESE,121,9.0,12.0,64,0.00,,,0.00,Wunderground v.1.15,2013-03-11 07:17:00,
2013-03-11 03:21:00,54.1,42.2,29.76,SE,134,10.0,10.0,64,0.00,,,0.00,Wunderground v.1.15,2013-03-11 07:21:00,
2013-03-11 03:22:00,54.1,42.2,29.75,SE,139,10.0,10.0,64,0.00,,,0.00,Wunderground v.1.15,2013-03-11 07:22:00,
2013-03-11 03:23:00,54.1,42.2,29.75,ESE,119,10.0,11.0,64,0.00,,,0.00,Wunderground v.1.15,2013-03-11 07:23:00,
2013-03-11 03:25:00,54.0,42.1,29.75,East,81,10.0,11.0,64,0.00,,,0.00,Wunderground v.1.15,2013-03-11 07:25:00,
2013-03-11 03:27:00,53.8,42.3,29.75,SSE,159,10.0,13.0,65,0.00,,,0.00,Wunderground v.1.15,2013-03-11 07:27:00,
2013-03-11 03:29:00,53.7,42.2,29.75,ENE,70,9.0,9.0,65,0.00,,,0.00,Wunderground v.1.15,2013-03-11 07:29:00,
2013-03-11 03:30:00,53.7,42.2,29.75,SE,135,9.0,9.0,65,0.00,,,0.00,Wunderground v.1.15,2013-03-11 07:30:00,
2013-03-11 03:32:00,53.7,42.2,29.75,East,93,9.0,10.0,65,0.00,,,0.00,Wunderground v.1.15,2013-03-11 07:32:00,
2013-03-11 03:35:00,53.7,43.0,29.75,SE,137,9.0,10.0,67,0.00,,,0.00,Wunderground v.1.15,2013-03-11 07:35:00,
2013-03-11 03:37:00,53.7,42.6,29.75,SE,135,9.0,14.0,66,0.00,,,0.00,Wunderground v.1.15,2013-03-11 07:37:00,
2013-03-11 03:38:00,53.7,42.6,29.74,SE,135,10.0,15.0,66,0.00,,,0.00,Wunderground v.1.15,2013-03-11 07:38:00,
2013-03-11 03:41:00,53.7,43.0,29.74,SSE,164,11.0,16.0,67,0.00,,,0.00,Wunderground v.1.15,2013-03-11 07:41:00,
2013-03-11 03:43:00,53.8,43.1,29.74,SE,140,12.0,16.0,67,0.00,,,0.00,Wunderground v.1.15,2013-03-11 07:43:00,
2013-03-11 03:46:00,53.8,43.1,29.74,SE,141,12.0,16.0,67,0.00,,,0.00,Wunderground v.1.15,2013-03-11 07:46:00,
2013-03-11 03:48:00,53.8,43.1,29.74,SE,138,13.0,16.0,67,0.00,,,0.00,Wunderground v.1.15,2013-03-11 07:48:00,
2013-03-11 03:50:00,53.7,43.0,29.74,SSE,166,13.0,13.0,67,0.00,,,0.00,Wunderground v.1.15,2013-03-11 07:50:00,
2013-03-11 03:51:00,53.6,42.9,29.74,SE,128,13.0,15.0,67,0.00,,,0.00,Wunderground v.1.15,2013-03-11 07:51:00,
2013-03-11 03:53:00,53.7,43.4,29.73,SSE,151,13.0,16.0,68,0.00,,,0.00,Wunderground v.1.15,2013-03-11 07:53:00,
2013-03-11 03:57:00,53.8,43.5,29.73,SE,135,13.0,16.0,68,0.00,,,0.00,Wunderground v.1.15,2013-03-11 07:57:00,
2013-03-11 03:59:00,53.9,43.6,29.73,SE,142,14.0,14.0,68,0.00,,,0.00,Wunderground v.1.15,2013-03-11 07:59:00,
2013-03-11 04:01:00,53.8,43.5,29.73,SE,125,13.0,14.0,68,0.00,,,0.00,Wunderground v.1.15,2013-03-11 08:01:00,
2013-03-11 04:06:00,53.6,43.7,29.73,SE,138,13.0,19.0,69,0.00,,,0.00,Wunderground v.1.15,2013-03-11 08:06:00,
2013-03-11 04:07:00,53.6,43.7,29.73,SSE,152,13.0,19.0,69,0.00,,,0.00,Wunderground v.1.15,2013-03-11 08:07:00,
2013-03-11 04:11:00,53.5,44.0,29.72,SE,139,13.0,14.0,70,0.00,,,0.00,Wunderground v.1.15,2013-03-11 08:11:00,
2013-03-11 04:12:00,53.5,44.3,29.72,SE,137,13.0,14.0,71,0.00,,,0.00,Wunderground v.1.15,2013-03-11 08:12:00,
2013-03-11 04:13:00,53.5,44.3,29.72,SE,128,13.0,14.0,71,0.00,,,0.00,Wunderground v.1.15,2013-03-11 08:13:00,
2013-03-11 04:17:00,53.6,44.8,29.72,SSE,147,14.0,21.0,72,0.00,,,0.00,Wunderground v.1.15,2013-03-11 08:17:00,
2013-03-11 04:18:00,53.7,44.9,29.72,SSE,150,15.0,21.0,72,0.00,,,0.00,Wunderground v.1.15,2013-03-11 08:18:00,
2013-03-11 04:21:00,53.5,44.7,29.72,SE,130,15.0,15.0,72,0.00,,,0.00,Wunderground v.1.15,2013-03-11 08:21:00,
2013-03-11 04:23:00,53.5,44.7,29.72,SSE,149,15.0,18.0,72,0.00,,,0.00,Wunderground v.1.15,2013-03-11 08:23:00,
2013-03-11 04:24:00,53.5,44.7,29.72,SE,133,15.0,18.0,72,0.00,,,0.00,Wunderground v.1.15,2013-03-11 08:24:00,
2013-03-11 04:25:00,53.5,44.7,29.73,SSE,154,15.0,18.0,72,0.00,,,0.00,Wunderground v.1.15,2013-03-11 08:25:00,
2013-03-11 05:46:00,53.6,46.9,29.71,SE,136,17.0,19.0,78,0.00,,,0.00,Wunderground v.1.15,2013-03-11 09:46:00,
2013-03-11 05:47:00,53.6,46.9,29.71,SSE,147,16.0,19.0,78,0.00,,,0.00,Wunderground v.1.15,2013-03-11 09:47:00,
2013-03-11 05:50:00,53.5,46.8,29.71,SSE,149,16.0,19.0,78,0.00,,,0.00,Wunderground v.1.15,2013-03-11 09:50:00,
2013-03-11 05:51:00,53.5,46.8,29.71,South,186,16.0,19.0,78,0.00,,,0.00,Wunderground v.1.15,2013-03-11 09:51:00,
2013-03-11 05:56:00,53.2,46.9,29.71,SE,146,16.0,17.0,79,0.00,,,0.00,Wunderground v.1.15,2013-03-11 09:56:00,
2013-03-11 05:57:00,53.2,46.9,29.71,SSE,154,15.0,17.0,79,0.00,,,0.00,Wunderground v.1.15,2013-03-11 09:57:00,
2013-03-11 05:59:00,53.0,46.7,29.71,South,175,15.0,17.0,79,0.00,,,0.00,Wunderground v.1.15,2013-03-11 09:59:00,
2013-03-11 06:00:00,52.9,46.6,29.71,SE,140,15.0,17.0,79,0.00,,,0.00,Wunderground v.1.15,2013-03-11 10:00:00,
2013-03-11 06:01:00,52.9,46.6,29.71,SSE,168,15.0,18.0,79,0.00,,,0.00,Wunderground v.1.15,2013-03-11 10:01:00,
2013-03-11 06:04:00,52.8,46.8,29.71,South,180,15.0,18.0,80,0.00,,,0.00,Wunderground v.1.15,2013-03-11 10:04:00,
2013-03-11 06:07:00,52.6,46.3,29.71,SSE,157,14.0,18.0,79,0.00,,,0.00,Wunderground v.1.15,2013-03-11 10:07:00,
2013-03-11 06:08:00,52.5,46.5,29.71,SSW,193,14.0,19.0,80,0.00,,,0.00,Wunderground v.1.15,2013-03-11 10:08:00,
2013-03-11 06:10:00,52.5,46.8,29.71,SSE,151,14.0,16.0,81,0.00,,,0.00,Wunderground v.1.15,2013-03-11 10:10:00,
2013-03-11 06:14:00,52.6,46.6,29.71,South,190,14.0,17.0,80,0.00,,,0.00,Wunderground v.1.15,2013-03-11 10:14:00,
2013-03-11 06:15:00,52.6,46.6,29.71,SSE,166,15.0,17.0,80,0.00,,,0.00,Wunderground v.1.15,2013-03-11 10:15:00,
2013-03-11 06:19:00,52.6,46.9,29.70,South,186,15.0,17.0,81,0.00,,,0.00,Wunderground v.1.15,2013-03-11 10:19:00,
2013-03-11 06:20:00,52.5,46.8,29.70,South,169,15.0,15.0,81,0.00,,,0.00,Wunderground v.1.15,2013-03-11 10:20:00,
2013-03-11 06:22:00,52.5,46.5,29.70,South,190,15.0,17.0,80,0.00,,,0.00,Wunderground v.1.15,2013-03-11 10:22:00,
2013-03-11 06:24:00,52.5,46.5,29.71,SSE,150,16.0,17.0,80,0.00,,,0.00,Wunderground v.1.15,2013-03-11 10:24:00,
2013-03-11 06:25:00,52.5,46.5,29.70,SE,128,16.0,17.0,80,0.00,,,0.00,Wunderground v.1.15,2013-03-11 10:25:00,
2013-03-11 06:26:00,52.5,46.5,29.71,SE,139,15.0,17.0,80,0.00,,,0.00,Wunderground v.1.15,2013-03-11 10:26:00,
2013-03-11 06:27:00,52.4,46.4,29.71,SSE,148,15.0,18.0,80,0.00,,,0.00,Wunderground v.1.15,2013-03-11 10:27:00,
2013-03-11 06:30:00,52.3,46.6,29.71,SSE,165,16.0,16.0,81,0.00,,,0.00,Wunderground v.1.15,2013-03-11 10:30:00,
2013-03-11 06:31:00,52.3,46.6,29.71,SSE,168,16.0,16.0,81,0.00,,,0.00,Wunderground v.1.15,2013-03-11 10:31:00,
2013-03-11 06:32:00,52.1,47.1,29.71,ESE,123,16.0,21.0,83,0.00,,,0.00,Wunderground v.1.15,2013-03-11 10:32:00,
2013-03-11 06:35:00,51.9,46.9,29.71,SE,141,17.0,23.0,83,0.00,,,0.00,Wunderground v.1.15,2013-03-11 10:35:00,
2013-03-11 06:37:00,51.7,47.3,29.71,SE,125,18.0,25.0,85,0.00,,,0.00,Wunderground v.1.15,2013-03-11 10:37:00,
2013-03-11 06:38:00,51.5,47.1,29.71,SSE,149,18.0,25.0,85,0.00,,,0.00,Wunderground v.1.15,2013-03-11 10:38:00,
2013-03-11 06:40:00,51.5,47.5,29.71,SSE,147,18.0,18.0,86,0.00,,,0.00,Wunderground v.1.15,2013-03-11 10:40:00,
2013-03-11 06:44:00,51.0,46.6,29.71,SE,139,16.0,18.0,85,0.00,,,0.00,Wunderground v.1.15,2013-03-11 10:44:00,
2013-03-11 06:45:00,50.9,46.6,29.71,South,178,15.0,18.0,85,0.00,,,0.00,Wunderground v.1.15,2013-03-11 10:45:00,
2013-03-11 06:49:00,50.7,47.0,29.71,SSE,166,12.0,26.0,87,0.00,,,0.00,Wunderground v.1.15,2013-03-11 10:49:00,
2013-03-11 06:53:00,50.7,47.0,29.71,SSE,152,12.0,26.0,87,0.00,,,0.00,Wunderground v.1.15,2013-03-11 10:53:00,
2013-03-11 06:56:00,50.6,46.9,29.72,SE,132,13.0,26.0,87,0.00,,,0.00,Wunderground v.1.15,2013-03-11 10:56:00,
2013-03-11 06:57:00,50.6,46.9,29.72,SE,143,13.0,26.0,87,0.00,,,0.00,Wunderground v.1.15,2013-03-11 10:57:00,
2013-03-11 06:59:00,50.6,46.9,29.72,SE,145,13.0,26.0,87,0.00,,,0.00,Wunderground v.1.15,2013-03-11 10:59:00,
2013-03-11 07:01:00,50.5,46.8,29.72,SSE,155,13.0,26.0,87,0.00,,,0.00,Wunderground v.1.15,2013-03-11 11:01:00,
2013-03-11 07:02:00,50.4,46.7,29.72,South,173,13.0,26.0,87,0.00,,,0.00,Wunderground v.1.15,2013-03-11 11:02:00,
2013-03-11 07:05:00,50.2,46.8,29.72,SSE,159,14.0,26.0,88,0.00,,,0.00,Wunderground v.1.15,2013-03-11 11:05:00,
2013-03-11 07:07:00,50.1,46.7,29.72,SE,139,15.0,26.0,88,0.00,,,0.00,Wunderground v.1.15,2013-03-11 11:07:00,
2013-03-11 07:09:00,49.9,46.8,29.73,SSE,156,15.0,26.0,89,0.00,,,0.00,Wunderground v.1.15,2013-03-11 11:09:00,
2013-03-11 07:10:00,49.8,46.7,29.72,South,182,16.0,16.0,89,0.00,,,0.00,Wunderground v.1.15,2013-03-11 11:10:00,
2013-03-11 07:12:00,49.5,46.7,29.72,SE,146,15.0,16.0,90,0.00,,,0.00,Wunderground v.1.15,2013-03-11 11:12:00,
2013-03-11 07:14:00,49.4,46.6,29.72,SSE,168,15.0,18.0,90,0.00,,,0.00,Wunderground v.1.15,2013-03-11 11:14:00,
2013-03-11 07:18:00,49.1,46.6,29.72,SSE,149,14.0,18.0,91,0.00,,,0.00,Wunderground v.1.15,2013-03-11 11:18:00,
2013-03-11 07:19:00,49.1,46.9,29.72,SE,130,14.0,14.0,92,0.00,,,0.00,Wunderground v.1.15,2013-03-11 11:19:00,
2013-03-11 07:21:00,49.1,46.9,29.72,South,176,14.0,14.0,92,0.00,,,0.00,Wunderground v.1.15,2013-03-11 11:21:00,
2013-03-11 07:23:00,48.9,46.7,29.72,SE,138,15.0,21.0,92,0.00,,,0.00,Wunderground v.1.15,2013-03-11 11:23:00,
2013-03-11 07:25:00,48.9,46.7,29.72,SSE,155,14.0,21.0,92,0.00,,,0.00,Wunderground v.1.15,2013-03-11 11:25:00,
2013-03-11 07:27:00,48.9,46.7,29.72,SE,125,15.0,21.0,92,0.00,,,0.00,Wunderground v.1.15,2013-03-11 11:27:00,
2013-03-11 07:30:00,48.8,46.6,29.72,SSE,164,14.0,14.0,92,0.00,,,0.00,Wunderground v.1.15,2013-03-11 11:30:00,
2013-03-11 07:32:00,48.7,46.8,29.71,SE,132,14.0,14.0,93,0.00,,,0.00,Wunderground v.1.15,2013-03-11 11:32:00,
2013-03-11 07:35:00,48.7,46.8,29.70,SE,129,13.0,14.0,93,0.00,,,0.00,Wunderground v.1.15,2013-03-11 11:35:00,
2013-03-11 07:36:00,48.7,46.8,29.71,SE,143,13.0,15.0,93,0.00,,,0.00,Wunderground v.1.15,2013-03-11 11:36:00,
2013-03-11 07:37:00,48.7,46.8,29.71,SE,142,12.0,15.0,93,0.00,,,0.00,Wunderground v.1.15,2013-03-11 11:37:00,
2013-03-11 07:40:00,48.7,46.8,29.71,SE,125,12.0,14.0,93,0.00,,,0.00,Wunderground v.1.15,2013-03-11 11:40:00,
2013-03-11 07:41:00,48.8,47.2,29.70,SE,138,12.0,14.0,94,0.00,,,0.00,Wunderground v.1.15,2013-03-11 11:41:00,
2013-03-11 07:43:00,48.8,47.2,29.70,South,182,13.0,14.0,94,0.00,,,0.00,Wunderground v.1.15,2013-03-11 11:43:00,
2013-03-11 07:47:00,48.7,46.8,29.70,SE,133,12.0,14.0,93,0.00,,,0.00,Wunderground v.1.15,2013-03-11 11:47:00,
2013-03-11 07:48:00,48.7,47.1,29.70,ESE,114,12.0,14.0,94,0.00,,,0.00,Wunderground v.1.15,2013-03-11 11:48:00,
2013-03-11 07:53:00,48.6,47.0,29.71,SE,130,11.0,13.0,94,0.00,,,0.00,Wunderground v.1.15,2013-03-11 11:53:00,
2013-03-11 07:54:00,48.6,47.0,29.70,SE,135,11.0,13.0,94,0.00,,,0.00,Wunderground v.1.15,2013-03-11 11:54:00,
2013-03-11 07:56:00,48.6,47.0,29.70,SE,145,11.0,13.0,94,0.00,,,0.00,Wunderground v.1.15,2013-03-11 11:56:00,
2013-03-11 07:58:00,48.6,47.0,29.70,SE,135,10.0,13.0,94,0.00,,,0.00,Wunderground v.1.15,2013-03-11 11:58:00,
2013-03-11 08:02:00,48.6,47.0,29.69,SE,135,10.0,10.0,94,0.00,,,0.00,Wunderground v.1.15,2013-03-11 12:02:00,
2013-03-11 08:04:00,48.6,47.0,29.69,SE,139,10.0,12.0,94,0.00,,,0.00,Wunderground v.1.15,2013-03-11 12:04:00,
2013-03-11 08:05:00,48.6,47.0,29.69,SE,143,9.0,12.0,94,0.00,,,0.00,Wunderground v.1.15,2013-03-11 12:05:00,
2013-03-11 08:06:00,48.5,46.9,29.70,SE,144,9.0,12.0,94,0.00,,,0.00,Wunderground v.1.15,2013-03-11 12:06:00,
2013-03-11 08:09:00,48.5,46.9,29.71,SE,146,9.0,12.0,94,0.00,,,0.00,Wunderground v.1.15,2013-03-11 12:09:00,
2013-03-11 08:10:00,48.5,46.9,29.71,SE,144,9.0,10.0,94,0.00,,,0.00,Wunderground v.1.15,2013-03-11 12:10:00,
2013-03-11 08:15:00,48.5,46.9,29.71,ESE,117,10.0,16.0,94,0.00,,,0.00,Wunderground v.1.15,2013-03-11 12:15:00,
2013-03-11 08:17:00,48.5,46.9,29.70,East,85,11.0,16.0,94,0.00,,,0.00,Wunderground v.1.15,2013-03-11 12:17:00,
2013-03-11 08:19:00,48.5,46.9,29.70,SSE,158,11.0,16.0,94,0.00,,,0.00,Wunderground v.1.15,2013-03-11 12:19:00,
2013-03-11 08:20:00,48.5,46.9,29.69,ESE,117,11.0,11.0,94,0.00,,,0.00,Wunderground v.1.15,2013-03-11 12:20:00,
2013-03-11 08:22:00,48.6,47.2,29.70,SE,130,10.0,12.0,95,0.00,,,0.00,Wunderground v.1.15,2013-03-11 12:22:00,
2013-03-11 08:25:00,48.5,47.1,29.70,SSE,165,10.0,13.0,95,0.00,,,0.00,Wunderground v.1.15,2013-03-11 12:25:00,
2013-03-11 08:26:00,48.6,47.2,29.71,SE,125,11.0,14.0,95,0.00,,,0.00,Wunderground v.1.15,2013-03-11 12:26:00,
2013-03-11 08:28:00,48.6,47.2,29.71,SSE,147,11.0,14.0,95,0.00,,,0.00,Wunderground v.1.15,2013-03-11 12:28:00,
2013-03-11 08:31:00,48.5,47.1,29.71,SE,143,12.0,12.0,95,0.00,,,0.00,Wunderground v.1.15,2013-03-11 12:31:00,
2013-03-11 08:33:00,48.5,46.9,29.71,SSE,147,12.0,12.0,94,0.00,,,0.00,Wunderground v.1.15,2013-03-11 12:33:00,
2013-03-11 08:35:00,48.5,47.1,29.70,SSE,150,12.0,12.0,95,0.00,,,0.00,Wunderground v.1.15,2013-03-11 12:35:00,
2013-03-11 08:37:00,48.5,47.1,29.70,SE,125,11.0,12.0,95,0.00,,,0.00,Wunderground v.1.15,2013-03-11 12:37:00,
2013-03-11 08:39:00,48.6,47.2,29.70,SE,132,11.0,12.0,95,0.00,,,0.00,Wunderground v.1.15,2013-03-11 12:39:00,
2013-03-11 08:40:00,48.6,47.2,29.71,SE,135,11.0,11.0,95,0.00,,,0.00,Wunderground v.1.15,2013-03-11 12:40:00,
2013-03-11 08:44:00,48.5,47.1,29.71,SSE,150,10.0,15.0,95,0.00,,,0.00,Wunderground v.1.15,2013-03-11 12:44:00,
2013-03-11 08:45:00,48.5,47.1,29.71,ESE,119,10.0,15.0,95,0.00,,,0.00,Wunderground v.1.15,2013-03-11 12:45:00,
2013-03-11 08:50:00,48.5,47.1,29.71,SE,138,9.0,12.0,95,0.00,,,0.00,Wunderground v.1.15,2013-03-11 12:50:00,
2013-03-11 08:52:00,48.5,47.1,29.71,SSE,159,9.0,12.0,95,0.00,,,0.00,Wunderground v.1.15,2013-03-11 12:52:00,
2013-03-11 08:53:00,48.4,47.0,29.71,SE,143,9.0,12.0,95,0.00,,,0.00,Wunderground v.1.15,2013-03-11 12:53:00,
2013-03-11 08:55:00,48.4,47.0,29.71,SSW,209,9.0,12.0,95,0.00,,,0.00,Wunderground v.1.15,2013-03-11 12:55:00,
2013-03-11 08:57:00,48.4,47.0,29.71,ESE,109,8.0,12.0,95,0.00,,,0.00,Wunderground v.1.15,2013-03-11 12:57:00,
2013-03-11 09:02:00,48.5,47.1,29.71,SE,140,9.0,11.0,95,0.00,,,0.00,Wunderground v.1.15,2013-03-11 13:02:00,
2013-03-11 09:04:00,48.5,47.1,29.71,SE,125,9.0,12.0,95,0.00,,,0.00,Wunderground v.1.15,2013-03-11 13:04:00,
2013-03-11 09:06:00,48.4,47.0,29.71,SE,133,9.0,12.0,95,0.00,,,0.00,Wunderground v.1.15,2013-03-11 13:06:00,
2013-03-11 09:09:00,48.5,47.1,29.71,SE,140,9.0,13.0,95,0.00,,,0.00,Wunderground v.1.15,2013-03-11 13:09:00,
2013-03-11 09:12:00,48.5,47.1,29.70,SE,127,10.0,11.0,95,0.00,,,0.00,Wunderground v.1.15,2013-03-11 13:12:00,
2013-03-11 09:14:00,48.5,47.1,29.70,SE,132,10.0,12.0,95,0.00,,,0.00,Wunderground v.1.15,2013-03-11 13:14:00,
2013-03-11 09:18:00,48.4,47.0,29.70,East,89,10.0,12.0,95,0.00,,,0.00,Wunderground v.1.15,2013-03-11 13:18:00,
2013-03-11 09:19:00,48.4,47.0,29.70,SSE,147,10.0,10.0,95,0.00,,,0.00,Wunderground v.1.15,2013-03-11 13:19:00,
2013-03-11 09:20:00,48.3,46.9,29.70,East,93,10.0,10.0,95,0.00,,,0.00,Wunderground v.1.15,2013-03-11 13:20:00,
2013-03-11 09:21:00,48.3,46.9,29.70,ESE,121,9.0,10.0,95,0.00,,,0.00,Wunderground v.1.15,2013-03-11 13:21:00,
2013-03-11 09:23:00,48.3,46.9,29.70,SE,138,9.0,10.0,95,0.00,,,0.00,Wunderground v.1.15,2013-03-11 13:23:00,
2013-03-11 09:26:00,48.3,46.9,29.70,SE,128,9.0,10.0,95,0.00,,,0.00,Wunderground v.1.15,2013-03-11 13:26:00,
2013-03-11 09:29:00,48.3,46.9,29.70,SE,128,9.0,9.0,95,0.00,,,0.00,Wunderground v.1.15,2013-03-11 13:29:00,
2013-03-11 09:32:00,48.3,46.9,29.70,SE,141,9.0,9.0,95,0.00,,,0.00,Wunderground v.1.15,2013-03-11 13:32:00,
2013-03-11 09:35:00,48.3,46.9,29.70,ESE,112,9.0,9.0,95,0.00,,,0.00,Wunderground v.1.15,2013-03-11 13:35:00,
2013-03-11 09:36:00,48.3,46.9,29.69,East,95,8.0,9.0,95,0.00,,,0.00,Wunderground v.1.15,2013-03-11 13:36:00,
2013-03-11 09:38:00,48.3,46.9,29.70,SE,135,8.0,9.0,95,0.00,,,0.00,Wunderground v.1.15,2013-03-11 13:38:00,
2013-03-11 09:40:00,48.4,47.0,29.70,SE,137,8.0,8.0,95,0.00,,,0.00,Wunderground v.1.15,2013-03-11 13:40:00,
2013-03-11 09:41:00,48.4,47.0,29.70,SSE,155,8.0,8.0,95,0.00,,,0.00,Wunderground v.1.15,2013-03-11 13:41:00,
2013-03-11 09:42:00,48.4,47.0,29.70,SE,132,8.0,8.0,95,0.00,,,0.00,Wunderground v.1.15,2013-03-11 13:42:00,
2013-03-11 09:44:00,48.4,47.0,29.69,ESE,121,7.0,8.0,95,0.00,,,0.00,Wunderground v.1.15,2013-03-11 13:44:00,
2013-03-11 09:46:00,48.5,47.1,29.70,SE,125,7.0,8.0,95,0.00,,,0.00,Wunderground v.1.15,2013-03-11 13:46:00,
2013-03-11 09:50:00,48.6,47.0,29.70,SSE,155,7.0,9.0,94,0.00,,,0.00,Wunderground v.1.15,2013-03-11 13:50:00,
2013-03-11 09:51:00,48.6,47.0,29.70,SE,142,7.0,9.0,94,0.00,,,0.00,Wunderground v.1.15,2013-03-11 13:51:00,
2013-03-11 09:53:00,48.6,47.0,29.70,ESE,116,7.0,9.0,94,0.00,,,0.00,Wunderground v.1.15,2013-03-11 13:53:00,
2013-03-11 09:55:00,48.6,47.0,29.69,East,84,7.0,10.0,94,0.00,,,0.00,Wunderground v.1.15,2013-03-11 13:55:00,
2013-03-11 09:56:00,48.7,47.1,29.69,SE,139,7.0,10.0,94,0.00,,,0.00,Wunderground v.1.15,2013-03-11 13:56:00,
2013-03-11 09:58:00,48.7,47.1,29.69,SE,130,7.0,10.0,94,0.00,,,0.00,Wunderground v.1.15,2013-03-11 13:58:00,
2013-03-11 10:01:00,48.7,46.8,29.70,SE,132,6.0,8.0,93,0.00,,,0.00,Wunderground v.1.15,2013-03-11 14:01:00,
2013-03-11 10:02:00,48.7,46.8,29.69,ESE,119,6.0,8.0,93,0.00,,,0.00,Wunderground v.1.15,2013-03-11 14:02:00,
2013-03-11 10:03:00,48.7,46.8,29.70,SE,135,6.0,8.0,93,0.00,,,0.00,Wunderground v.1.15,2013-03-11 14:03:00,
2013-03-11 10:06:00,48.8,46.9,29.69,ENE,73,6.0,8.0,93,0.00,,,0.00,Wunderground v.1.15,2013-03-11 14:06:00,
2013-03-11 10:08:00,48.8,46.9,29.69,ESE,114,6.0,8.0,93,0.00,,,0.00,Wunderground v.1.15,2013-03-11 14:08:00,
2013-03-11 10:10:00,48.9,47.0,29.69,East,88,6.0,6.0,93,0.00,,,0.00,Wunderground v.1.15,2013-03-11 14:10:00,
2013-03-11 10:11:00,48.9,47.0,29.69,East,84,6.0,6.0,93,0.00,,,0.00,Wunderground v.1.15,2013-03-11 14:11:00,
2013-03-11 10:13:00,48.9,47.0,29.69,SE,140,6.0,6.0,93,0.00,,,0.00,Wunderground v.1.15,2013-03-11 14:13:00,
2013-03-11 10:14:00,48.9,47.0,29.69,ESE,107,6.0,6.0,93,0.00,,,0.00,Wunderground v.1.15,2013-03-11 14:14:00,
2013-03-11 10:15:00,48.9,46.7,29.69,SE,140,6.0,9.0,92,0.00,,,0.00,Wunderground v.1.15,2013-03-11 14:15:00,
2013-03-11 10:18:00,48.9,46.7,29.69,SE,130,6.0,9.0,92,0.00,,,0.00,Wunderground v.1.15,2013-03-11 14:18:00,
2013-03-11 10:21:00,48.9,46.7,29.69,SE,132,7.0,9.0,92,0.00,,,0.00,Wunderground v.1.15,2013-03-11 14:21:00,
2013-03-11 10:23:00,48.9,46.7,29.69,SE,146,8.0,10.0,92,0.00,,,0.00,Wunderground v.1.15,2013-03-11 14:23:00,
2013-03-11 10:26:00,48.9,46.7,29.69,SE,143,8.0,10.0,92,0.00,,,0.00,Wunderground v.1.15,2013-03-11 14:26:00,
2013-03-11 10:27:00,48.9,46.7,29.69,East,90,8.0,10.0,92,0.00,,,0.00,Wunderground v.1.15,2013-03-11 14:27:00,
2013-03-11 10:30:00,48.9,46.7,29.69,SE,134,9.0,9.0,92,0.00,,,0.00,Wunderground v.1.15,2013-03-11 14:30:00,
2013-03-11 10:31:00,48.9,46.7,29.69,SE,128,9.0,9.0,92,0.00,,,0.00,Wunderground v.1.15,2013-03-11 14:31:00,
2013-03-11 10:34:00,49.0,46.8,29.69,SSE,160,8.0,9.0,92,0.00,,,0.00,Wunderground v.1.15,2013-03-11 14:34:00,
2013-03-11 10:37:00,49.0,46.8,29.69,SE,125,9.0,11.0,92,0.00,,,0.00,Wunderground v.1.15,2013-03-11 14:37:00,
2013-03-11 10:40:00,49.2,47.0,29.69,SE,132,9.0,11.0,92,0.00,,,0.00,Wunderground v.1.15,2013-03-11 14:40:00,
2013-03-11 10:41:00,49.2,47.0,29.69,SSE,160,9.0,11.0,92,0.00,,,0.00,Wunderground v.1.15,2013-03-11 14:41:00,
2013-03-11 10:44:00,49.3,47.1,29.68,SSE,161,10.0,13.0,92,0.00,,,0.00,Wunderground v.1.15,2013-03-11 14:44:00,
2013-03-11 10:46:00,49.6,47.4,29.68,SSE,152,12.0,17.0,92,0.00,,,0.00,Wunderground v.1.15,2013-03-11 14:46:00,
2013-03-11 10:48:00,49.6,47.4,29.68,SE,142,12.0,17.0,92,0.00,,,0.00,Wunderground v.1.15,2013-03-11 14:48:00,
2013-03-11 10:49:00,49.6,47.1,29.68,SE,145,12.0,12.0,91,0.00,,,0.00,Wunderground v.1.15,2013-03-11 14:49:00,
2013-03-11 10:52:00,49.7,47.5,29.68,SSE,155,13.0,16.0,92,0.00,,,0.00,Wunderground v.1.15,2013-03-11 14:52:00,
2013-03-11 10:55:00,49.9,47.4,29.68,SSE,151,14.0,22.0,91,0.00,,,0.00,Wunderground v.1.15,2013-03-11 14:55:00,
2013-03-11 10:58:00,50.0,47.8,29.67,SE,128,15.0,22.0,92,0.00,,,0.00,Wunderground v.1.15,2013-03-11 14:58:00,
2013-03-11 11:01:00,50.2,47.7,29.67,SSE,160,17.0,19.0,91,0.00,,,0.00,Wunderground v.1.15,2013-03-11 15:01:00,
2013-03-11 11:03:00,50.2,47.7,29.67,SE,135,17.0,19.0,91,0.00,,,0.00,Wunderground v.1.15,2013-03-11 15:03:00,
2013-03-11 11:07:00,50.0,47.2,29.67,SE,138,17.0,19.0,90,0.00,,,0.00,Wunderground v.1.15,2013-03-11 15:07:00,
2013-03-11 11:08:00,50.1,47.6,29.67,SE,145,17.0,19.0,91,0.00,,,0.00,Wunderground v.1.15,2013-03-11 15:08:00,
2013-03-11 11:10:00,50.1,47.6,29.67,SE,135,17.0,17.0,91,0.00,,,0.00,Wunderground v.1.15,2013-03-11 15:10:00,
2013-03-11 11:13:00,50.2,47.7,29.67,SSE,164,17.0,22.0,91,0.00,,,0.00,Wunderground v.1.15,2013-03-11 15:13:00,
2013-03-11 11:15:00,50.2,47.7,29.67,SE,132,16.0,22.0,91,0.00,,,0.00,Wunderground v.1.15,2013-03-11 15:15:00,
2013-03-11 11:17:00,50.2,47.7,29.67,SE,142,16.0,22.0,91,0.00,,,0.00,Wunderground v.1.15,2013-03-11 15:17:00,
2013-03-11 11:18:00,50.2,47.7,29.67,SE,142,16.0,22.0,91,0.00,,,0.00,Wunderground v.1.15,2013-03-11 15:18:00,
2013-03-11 11:23:00,50.3,47.5,29.66,SSE,168,16.0,27.0,90,0.00,,,0.00,Wunderground v.1.15,2013-03-11 15:23:00,
2013-03-11 11:24:00,50.3,47.8,29.66,SE,146,17.0,27.0,91,0.00,,,0.00,Wunderground v.1.15,2013-03-11 15:24:00,
2013-03-11 11:28:00,50.1,47.6,29.66,South,182,17.0,27.0,91,0.00,,,0.00,Wunderground v.1.15,2013-03-11 15:28:00,
2013-03-11 11:29:00,50.1,47.6,29.66,SSE,150,16.0,19.0,91,0.00,,,0.00,Wunderground v.1.15,2013-03-11 15:29:00,
2013-03-11 11:32:00,50.0,47.8,29.66,SSE,147,16.0,19.0,92,0.00,,,0.00,Wunderground v.1.15,2013-03-11 15:32:00,
2013-03-11 11:34:00,50.1,47.9,29.66,SE,128,15.0,19.0,92,0.00,,,0.00,Wunderground v.1.15,2013-03-11 15:34:00,
2013-03-11 11:35:00,50.1,47.9,29.67,SE,125,14.0,19.0,92,0.00,,,0.00,Wunderground v.1.15,2013-03-11 15:35:00,
2013-03-11 11:37:00,50.1,47.9,29.66,SE,135,15.0,21.0,92,0.00,,,0.00,Wunderground v.1.15,2013-03-11 15:37:00,
2013-03-11 11:41:00,49.8,47.3,29.66,South,187,17.0,19.0,91,0.00,,,0.00,Wunderground v.1.15,2013-03-11 15:41:00,
2013-03-11 11:42:00,49.7,47.5,29.66,South,187,18.0,21.0,92,0.00,,,0.00,Wunderground v.1.15,2013-03-11 15:42:00,
2013-03-11 11:45:00,49.8,47.6,29.66,South,190,18.0,21.0,92,0.00,,,0.00,Wunderground v.1.15,2013-03-11 15:45:00,
2013-03-11 11:46:00,49.7,47.5,29.66,SSE,161,19.0,21.0,92,0.00,,,0.00,Wunderground v.1.15,2013-03-11 15:46:00,
2013-03-11 11:47:00,49.8,47.3,29.66,South,189,19.0,21.0,91,0.00,,,0.00,Wunderground v.1.15,2013-03-11 15:47:00,
2013-03-11 11:51:00,49.7,47.5,29.65,SSW,203,18.0,18.0,92,0.00,,,0.00,Wunderground v.1.15,2013-03-11 15:51:00,
2013-03-11 11:53:00,49.7,47.5,29.65,South,189,16.0,18.0,92,0.00,,,0.00,Wunderground v.1.15,2013-03-11 15:53:00,
2013-03-11 11:56:00,49.6,47.1,29.65,SE,142,14.0,18.0,91,0.00,,,0.00,Wunderground v.1.15,2013-03-11 15:56:00,
2013-03-11 11:59:00,49.5,47.0,29.65,SSE,150,12.0,18.0,91,0.00,,,0.00,Wunderground v.1.15,2013-03-11 15:59:00,
2013-03-11 12:00:00,49.5,47.3,29.65,SE,135,12.0,12.0,92,0.00,,,0.00,Wunderground v.1.15,2013-03-11 16:00:00,
2013-03-11 12:02:00,49.5,47.3,29.65,SSW,194,12.0,14.0,92,0.00,,,0.00,Wunderground v.1.15,2013-03-11 16:02:00,
2013-03-11 12:07:00,49.6,47.4,29.65,ESE,105,14.0,17.0,92,0.00,,,0.00,Wunderground v.1.15,2013-03-11 16:07:00,
2013-03-11 12:10:00,49.6,47.1,29.65,South,173,14.0,14.0,91,0.00,,,0.00,Wunderground v.1.15,2013-03-11 16:10:00,
2013-03-11 12:13:00,49.5,47.0,29.64,SE,135,13.0,20.0,91,0.00,,,0.00,Wunderground v.1.15,2013-03-11 16:13:00,
2013-03-11 12:15:00,49.6,47.1,29.65,SSE,151,13.0,20.0,91,0.00,,,0.00,Wunderground v.1.15,2013-03-11 16:15:00,
2013-03-11 12:18:00,49.5,46.7,29.65,SE,143,13.0,20.0,90,0.00,,,0.00,Wunderground v.1.15,2013-03-11 16:18:00,
2013-03-11 12:20:00,49.6,46.8,29.64,SE,142,13.0,13.0,90,0.00,,,0.00,Wunderground v.1.15,2013-03-11 16:20:00,
2013-03-11 12:23:00,49.7,46.9,29.63,East,81,13.0,13.0,90,0.00,,,0.00,Wunderground v.1.15,2013-03-11 16:23:00,
2013-03-11 12:24:00,49.7,46.9,29.63,South,173,13.0,16.0,90,0.00,,,0.00,Wunderground v.1.15,2013-03-11 16:24:00,
2013-03-11 12:25:00,49.8,47.0,29.63,SE,145,13.0,16.0,90,0.00,,,0.00,Wunderground v.1.15,2013-03-11 16:25:00,
2013-03-11 12:28:00,49.8,46.7,29.63,SE,142,13.0,16.0,89,0.00,,,0.00,Wunderground v.1.15,2013-03-11 16:28:00,
2013-03-11 12:29:00,49.9,46.8,29.63,SE,142,12.0,18.0,89,0.00,,,0.00,Wunderground v.1.15,2013-03-11 16:29:00,
2013-03-11 12:30:00,49.9,46.8,29.63,South,176,13.0,18.0,89,0.00,,,0.00,Wunderground v.1.15,2013-03-11 16:30:00,
2013-03-11 12:32:00,49.9,46.5,29.63,SE,146,13.0,18.0,88,0.00,,,0.00,Wunderground v.1.15,2013-03-11 16:32:00,
2013-03-11 12:36:00,50.1,46.7,29.63,SE,146,14.0,18.0,88,0.00,,,0.00,Wunderground v.1.15,2013-03-11 16:36:00,
2013-03-11 12:38:00,50.0,46.6,29.63,SSE,152,14.0,18.0,88,0.00,,,0.00,Wunderground v.1.15,2013-03-11 16:38:00,
2013-03-11 12:39:00,49.9,46.5,29.62,ESE,119,15.0,20.0,88,0.00,,,0.00,Wunderground v.1.15,2013-03-11 16:39:00,
2013-03-11 12:40:00,49.9,46.8,29.62,SE,130,16.0,20.0,89,0.00,,,0.00,Wunderground v.1.15,2013-03-11 16:40:00,
2013-03-11 12:44:00,49.8,46.7,29.62,South,187,18.0,24.0,89,0.00,,,0.00,Wunderground v.1.15,2013-03-11 16:44:00,
2013-03-11 12:45:00,49.7,46.6,29.62,SSE,149,18.0,24.0,89,0.00,,,0.00,Wunderground v.1.15,2013-03-11 16:45:00,
2013-03-11 12:48:00,49.5,46.4,29.62,SE,139,18.0,24.0,89,0.00,,,0.00,Wunderground v.1.15,2013-03-11 16:48:00,
2013-03-11 12:49:00,49.5,46.4,29.62,SSE,164,18.0,22.0,89,0.00,,,0.00,Wunderground v.1.15,2013-03-11 16:49:00,
2013-03-11 12:54:00,49.5,46.4,29.62,SSE,166,17.0,22.0,89,0.00,,,0.00,Wunderground v.1.15,2013-03-11 16:54:00,
2013-03-11 12:55:00,49.5,46.4,29.62,SSW,192,16.0,22.0,89,0.00,,,0.00,Wunderground v.1.15,2013-03-11 16:55:00,
2013-03-11 12:59:00,49.4,46.0,29.62,SE,142,15.0,15.0,88,0.00,,,0.00,Wunderground v.1.15,2013-03-11 16:59:00,
2013-03-11 13:02:00,49.4,46.0,29.62,SE,141,14.0,15.0,88,0.00,,,0.00,Wunderground v.1.15,2013-03-11 17:02:00,
2013-03-11 13:03:00,49.3,45.9,29.62,ESE,105,13.0,15.0,88,0.00,,,0.00,Wunderground v.1.15,2013-03-11 17:03:00,
2013-03-11 13:05:00,49.3,45.9,29.61,SE,135,13.0,15.0,88,0.00,,,0.00,Wunderground v.1.15,2013-03-11 17:05:00,
2013-03-11 13:09:00,49.4,46.0,29.62,ESE,109,11.0,11.0,88,0.00,,,0.00,Wunderground v.1.15,2013-03-11 17:09:00,
2013-03-11 13:12:00,49.3,45.9,29.61,East,95,10.0,16.0,88,0.00,,,0.00,Wunderground v.1.15,2013-03-11 17:12:00,
2013-03-11 13:15:00,49.3,45.9,29.61,SE,143,10.0,16.0,88,0.00,,,0.00,Wunderground v.1.15,2013-03-11 17:15:00,
2013-03-11 13:16:00,49.3,45.6,29.61,SE,135,10.0,16.0,87,0.00,,,0.00,Wunderground v.1.15,2013-03-11 17:16:00,
2013-03-11 13:19:00,49.2,45.5,29.61,SE,125,10.0,16.0,87,0.00,,,0.00,Wunderground v.1.15,2013-03-11 17:19:00,
2013-03-11 13:20:00,49.3,45.6,29.61,SE,138,10.0,11.0,87,0.00,,,0.00,Wunderground v.1.15,2013-03-11 17:20:00,
2013-03-11 13:21:00,49.3,45.6,29.61,SE,141,10.0,16.0,87,0.00,,,0.00,Wunderground v.1.15,2013-03-11 17:21:00,
2013-03-11 13:25:00,49.4,45.4,29.61,East,90,10.0,16.0,86,0.00,,,0.00,Wunderground v.1.15,2013-03-11 17:25:00,
2013-03-11 13:29:00,49.5,45.5,29.61,ESE,107,11.0,16.0,86,0.00,,,0.00,Wunderground v.1.15,2013-03-11 17:29:00,
2013-03-11 13:30:00,49.5,45.5,29.60,ESE,121,10.0,10.0,86,0.00,,,0.00,Wunderground v.1.15,2013-03-11 17:30:00,
2013-03-11 13:31:00,49.5,45.5,29.60,ESE,107,10.0,10.0,86,0.00,,,0.00,Wunderground v.1.15,2013-03-11 17:31:00,
2013-03-11 13:32:00,49.5,45.5,29.60,SE,142,10.0,13.0,86,0.00,,,0.00,Wunderground v.1.15,2013-03-11 17:32:00,
2013-03-11 13:35:00,49.5,45.5,29.60,East,90,9.0,13.0,86,0.00,,,0.01,Wunderground v.1.15,2013-03-11 17:35:00,
2013-03-11 13:36:00,49.5,45.5,29.60,SE,128,9.0,13.0,86,0.00,,,0.01,Wunderground v.1.15,2013-03-11 17:36:00,
2013-03-11 13:38:00,49.4,45.4,29.60,NE,48,9.0,13.0,86,0.00,,,0.01,Wunderground v.1.15,2013-03-11 17:38:00,
2013-03-11 13:39:00,49.4,45.4,29.60,SE,138,9.0,12.0,86,0.00,,,0.01,Wunderground v.1.15,2013-03-11 17:39:00,
2013-03-11 13:40:00,49.5,45.5,29.60,SE,125,9.0,12.0,86,0.00,,,0.01,Wunderground v.1.15,2013-03-11 17:40:00,
2013-03-11 13:43:00,49.3,45.3,29.59,South,185,9.0,12.0,86,0.00,,,0.01,Wunderground v.1.15,2013-03-11 17:43:00,
2013-03-11 13:44:00,49.2,45.2,29.59,SSE,154,9.0,12.0,86,0.00,,,0.01,Wunderground v.1.15,2013-03-11 17:44:00,
2013-03-11 13:45:00,49.1,45.1,29.59,NE,52,10.0,14.0,86,0.00,,,0.01,Wunderground v.1.15,2013-03-11 17:45:00,
2013-03-11 13:48:00,49.1,45.1,29.59,ESE,108,10.0,14.0,86,0.00,,,0.01,Wunderground v.1.15,2013-03-11 17:48:00,
2013-03-11 13:50:00,49.1,45.1,29.58,East,91,9.0,9.0,86,0.00,,,0.01,Wunderground v.1.15,2013-03-11 17:50:00,
2013-03-11 13:54:00,48.9,44.9,29.58,East,101,9.0,13.0,86,0.00,,,0.01,Wunderground v.1.15,2013-03-11 17:54:00,
2013-03-11 13:55:00,48.9,45.2,29.58,SSE,147,9.0,13.0,87,0.00,,,0.01,Wunderground v.1.15,2013-03-11 17:55:00,
2013-03-11 13:58:00,48.8,45.1,29.58,SE,125,9.0,13.0,87,0.00,,,0.01,Wunderground v.1.15,2013-03-11 17:58:00,
2013-03-11 13:59:00,48.7,45.0,29.58,East,98,9.0,9.0,87,0.00,,,0.01,Wunderground v.1.15,2013-03-11 17:59:00,
2013-03-11 14:01:00,48.6,44.9,29.58,ESE,121,9.0,9.0,87,0.00,,,0.01,Wunderground v.1.15,2013-03-11 18:01:00,
2013-03-11 14:05:00,48.5,45.1,29.57,East,87,9.0,11.0,88,0.00,,,0.01,Wunderground v.1.15,2013-03-11 18:05:00,
2013-03-11 14:06:00,48.5,45.1,29.56,SE,140,9.0,11.0,88,0.00,,,0.01,Wunderground v.1.15,2013-03-11 18:06:00,
2013-03-11 14:07:00,48.6,45.2,29.56,SSE,154,9.0,11.0,88,0.00,,,0.01,Wunderground v.1.15,2013-03-11 18:07:00,
2013-03-11 14:10:00,48.6,45.2,29.57,SE,139,9.0,10.0,88,0.00,,,0.01,Wunderground v.1.15,2013-03-11 18:10:00,
2013-03-11 14:11:00,48.6,45.2,29.57,ESE,116,9.0,10.0,88,0.00,,,0.01,Wunderground v.1.15,2013-03-11 18:11:00,
2013-03-11 14:12:00,48.6,45.2,29.56,ESE,111,9.0,10.0,88,0.00,,,0.01,Wunderground v.1.15,2013-03-11 18:12:00,
2013-03-11 14:14:00,48.6,45.2,29.56,ESE,115,9.0,10.0,88,0.00,,,0.01,Wunderground v.1.15,2013-03-11 18:14:00,
2013-03-11 14:18:00,48.7,45.3,29.56,SE,128,8.0,10.0,88,0.00,,,0.01,Wunderground v.1.15,2013-03-11 18:18:00,
2013-03-11 14:19:00,48.7,45.3,29.56,ENE,60,8.0,8.0,88,0.00,,,0.01,Wunderground v.1.15,2013-03-11 18:19:00,
2013-03-11 14:20:00,48.6,45.2,29.56,SSE,151,8.0,8.0,88,0.00,,,0.01,Wunderground v.1.15,2013-03-11 18:20:00,
2013-03-11 14:23:00,48.4,45.0,29.56,SE,132,8.0,9.0,88,0.00,,,0.01,Wunderground v.1.15,2013-03-11 18:23:00,
2013-03-11 14:27:00,48.3,45.2,29.56,SE,140,8.0,10.0,89,0.00,,,0.01,Wunderground v.1.15,2013-03-11 18:27:00,
2013-03-11 14:29:00,48.3,44.9,29.55,South,171,8.0,10.0,88,0.00,,,0.02,Wunderground v.1.15,2013-03-11 18:29:00,
2013-03-11 14:30:00,48.3,45.2,29.55,SE,140,9.0,14.0,89,0.00,,,0.02,Wunderground v.1.15,2013-03-11 18:30:00,
2013-03-11 14:32:00,48.2,45.1,29.56,SE,128,9.0,14.0,89,0.00,,,0.02,Wunderground v.1.15,2013-03-11 18:32:00,
2013-03-11 14:34:00,48.2,45.1,29.55,NE,53,10.0,14.0,89,0.12,,,0.03,Wunderground v.1.15,2013-03-11 18:34:00,
2013-03-11 14:35:00,48.2,45.4,29.55,SE,132,10.0,14.0,90,0.12,,,0.03,Wunderground v.1.15,2013-03-11 18:35:00,
2013-03-11 14:37:00,48.2,45.4,29.54,SE,137,10.0,14.0,90,0.14,,,0.03,Wunderground v.1.15,2013-03-11 18:37:00,
2013-03-11 14:40:00,48.0,45.2,29.54,SSE,164,10.0,10.0,90,0.23,,,0.05,Wunderground v.1.15,2013-03-11 18:40:00,
2013-03-11 14:42:00,48.0,45.2,29.54,SSE,159,10.0,16.0,90,0.23,,,0.05,Wunderground v.1.15,2013-03-11 18:42:00,
2013-03-11 14:44:00,48.0,45.5,29.54,SE,133,11.0,16.0,91,0.16,,,0.06,Wunderground v.1.15,2013-03-11 18:44:00,
2013-03-11 14:47:00,47.9,45.4,29.53,SSE,147,11.0,16.0,91,0.14,,,0.06,Wunderground v.1.15,2013-03-11 18:47:00,
2013-03-11 14:48:00,48.0,45.5,29.53,East,91,11.0,16.0,91,0.11,,,0.06,Wunderground v.1.15,2013-03-11 18:48:00,
2013-03-11 14:49:00,48.0,45.5,29.53,SSE,152,12.0,12.0,91,0.11,,,0.07,Wunderground v.1.15,2013-03-11 18:49:00,
2013-03-11 14:55:00,47.9,45.7,29.54,SE,142,13.0,14.0,92,0.32,,,0.09,Wunderground v.1.15,2013-03-11 18:55:00,
2013-03-11 14:56:00,47.9,45.7,29.53,SE,134,13.0,15.0,92,0.38,,,0.10,Wunderground v.1.15,2013-03-11 18:56:00,
2013-03-11 15:01:00,47.7,45.5,29.53,SE,125,12.0,12.0,92,0.21,,,0.11,Wunderground v.1.15,2013-03-11 19:01:00,
2013-03-11 15:02:00,47.7,45.5,29.53,East,100,11.0,12.0,92,0.19,,,0.12,Wunderground v.1.15,2013-03-11 19:02:00,
2013-03-11 15:07:00,47.7,45.5,29.53,SE,132,10.0,12.0,92,0.11,,,0.12,Wunderground v.1.15,2013-03-11 19:07:00,
2013-03-11 15:09:00,47.6,45.4,29.53,SSE,151,9.0,13.0,92,0.09,,,0.12,Wunderground v.1.15,2013-03-11 19:09:00,
2013-03-11 15:13:00,47.5,45.6,29.53,SE,140,10.0,16.0,93,0.05,,,0.13,Wunderground v.1.15,2013-03-11 19:13:00,
2013-03-11 15:14:00,47.5,45.6,29.53,SE,132,10.0,16.0,93,0.05,,,0.13,Wunderground v.1.15,2013-03-11 19:14:00,
2013-03-11 15:18:00,47.5,45.6,29.52,South,171,11.0,16.0,93,0.05,,,0.13,Wunderground v.1.15,2013-03-11 19:18:00,
2013-03-11 15:19:00,47.5,45.6,29.52,South,172,11.0,13.0,93,0.05,,,0.13,Wunderground v.1.15,2013-03-11 19:19:00,
2013-03-11 15:23:00,47.6,46.0,29.52,SE,139,12.0,15.0,94,0.07,,,0.14,Wunderground v.1.15,2013-03-11 19:23:00,
2013-03-11 15:25:00,47.7,46.1,29.52,SSE,153,13.0,15.0,94,0.07,,,0.14,Wunderground v.1.15,2013-03-11 19:25:00,
2013-03-11 15:29:00,47.7,45.8,29.52,ENE,76,13.0,13.0,93,0.07,,,0.14,Wunderground v.1.15,2013-03-11 19:29:00,
2013-03-11 15:32:00,47.6,45.7,29.51,SE,125,13.0,13.0,93,0.06,,,0.14,Wunderground v.1.15,2013-03-11 19:32:00,
2013-03-11 15:35:00,47.8,46.2,29.51,SE,128,12.0,16.0,94,0.04,,,0.14,Wunderground v.1.15,2013-03-11 19:35:00,
2013-03-11 15:37:00,47.8,46.2,29.51,SSE,166,12.0,16.0,94,0.04,,,0.14,Wunderground v.1.15,2013-03-11 19:37:00,
2013-03-11 15:38:00,47.7,46.1,29.50,South,178,12.0,16.0,94,0.04,,,0.14,Wunderground v.1.15,2013-03-11 19:38:00,
2013-03-11 15:40:00,47.8,46.2,29.50,SE,138,11.0,12.0,94,0.00,,,0.15,Wunderground v.1.15,2013-03-11 19:40:00,
2013-03-11 15:42:00,47.8,46.2,29.50,SE,126,12.0,12.0,94,0.00,,,0.15,Wunderground v.1.15,2013-03-11 19:42:00,
2013-03-11 15:43:00,47.8,46.2,29.50,NE,55,12.0,14.0,94,0.00,,,0.15,Wunderground v.1.15,2013-03-11 19:43:00,
2013-03-11 15:45:00,47.9,46.3,29.50,ENE,66,12.0,14.0,94,0.00,,,0.15,Wunderground v.1.15,2013-03-11 19:45:00,
2013-03-11 15:47:00,47.9,46.3,29.50,SSE,156,12.0,14.0,94,0.00,,,0.15,Wunderground v.1.15,2013-03-11 19:47:00,
2013-03-11 15:48:00,47.9,46.3,29.50,SSE,165,12.0,14.0,94,0.00,,,0.15,Wunderground v.1.15,2013-03-11 19:48:00,
2013-03-11 15:51:00,47.9,46.3,29.49,SSE,153,13.0,14.0,94,0.00,,,0.15,Wunderground v.1.15,2013-03-11 19:51:00,
2013-03-11 15:53:00,48.1,46.5,29.49,SE,132,13.0,15.0,94,0.05,,,0.16,Wunderground v.1.15,2013-03-11 19:53:00,
2013-03-11 15:54:00,48.1,46.5,29.49,SE,125,13.0,15.0,94,0.05,,,0.16,Wunderground v.1.15,2013-03-11 19:54:00,
2013-03-11 15:55:00,48.2,46.6,29.48,South,171,13.0,15.0,94,0.05,,,0.16,Wunderground v.1.15,2013-03-11 19:55:00,
2013-03-11 15:56:00,48.2,46.6,29.48,SE,135,14.0,19.0,94,0.05,,,0.16,Wunderground v.1.15,2013-03-11 19:56:00,
2013-03-11 15:58:00,48.4,46.8,29.48,ESE,122,15.0,20.0,94,0.05,,,0.16,Wunderground v.1.15,2013-03-11 19:58:00,
2013-03-11 16:01:00,48.5,46.6,29.48,SSE,152,15.0,15.0,93,0.05,,,0.16,Wunderground v.1.15,2013-03-11 20:01:00,
2013-03-11 16:02:00,48.5,46.6,29.48,SSE,161,15.0,15.0,93,0.05,,,0.16,Wunderground v.1.15,2013-03-11 20:02:00,
2013-03-11 16:05:00,48.5,46.9,29.48,SE,139,15.0,15.0,94,0.05,,,0.16,Wunderground v.1.15,2013-03-11 20:05:00,
2013-03-11 16:06:00,48.5,46.6,29.49,SE,132,14.0,15.0,93,0.04,,,0.16,Wunderground v.1.15,2013-03-11 20:06:00,
2013-03-11 16:08:00,48.4,46.5,29.49,SSE,149,14.0,15.0,93,0.04,,,0.16,Wunderground v.1.15,2013-03-11 20:08:00,
2013-03-11 16:10:00,48.4,46.5,29.48,SE,133,12.0,14.0,93,0.00,,,0.16,Wunderground v.1.15,2013-03-11 20:10:00,
2013-03-11 16:13:00,48.5,46.9,29.47,SE,125,13.0,16.0,94,0.00,,,0.16,Wunderground v.1.15,2013-03-11 20:13:00,
2013-03-11 16:14:00,48.6,47.0,29.47,SE,130,13.0,16.0,94,0.00,,,0.16,Wunderground v.1.15,2013-03-11 20:14:00,
2013-03-11 16:17:00,48.7,47.1,29.47,SE,139,13.0,16.0,94,0.00,,,0.16,Wunderground v.1.15,2013-03-11 20:17:00,
2013-03-11 16:18:00,48.7,47.1,29.47,ESE,116,12.0,16.0,94,0.00,,,0.17,Wunderground v.1.15,2013-03-11 20:18:00,
2013-03-11 16:19:00,48.7,47.1,29.47,SE,130,12.0,12.0,94,0.00,,,0.17,Wunderground v.1.15,2013-03-11 20:19:00,
2013-03-11 16:21:00,48.7,47.1,29.47,ESE,119,12.0,12.0,94,0.00,,,0.17,Wunderground v.1.15,2013-03-11 20:21:00,
2013-03-11 16:22:00,48.5,46.6,29.47,SSE,148,11.0,14.0,93,0.00,,,0.17,Wunderground v.1.15,2013-03-11 20:22:00,
2013-03-11 16:27:00,48.4,46.8,29.47,SE,128,12.0,17.0,94,0.00,,,0.17,Wunderground v.1.15,2013-03-11 20:27:00,
2013-03-11 16:29:00,48.4,46.8,29.47,SSE,159,13.0,17.0,94,0.00,,,0.17,Wunderground v.1.15,2013-03-11 20:29:00,
2013-03-11 16:34:00,48.1,46.5,29.47,SE,144,12.0,16.0,94,0.00,,,0.17,Wunderground v.1.15,2013-03-11 20:34:00,
2013-03-11 16:35:00,48.1,46.2,29.47,South,175,12.0,16.0,93,0.00,,,0.17,Wunderground v.1.15,2013-03-11 20:35:00,
2013-03-11 16:36:00,48.0,46.4,29.47,SSE,157,12.0,16.0,94,0.00,,,0.17,Wunderground v.1.15,2013-03-11 20:36:00,
2013-03-11 16:38:00,48.0,46.4,29.47,SW,219,12.0,16.0,94,0.00,,,0.17,Wunderground v.1.15,2013-03-11 20:38:00,
2013-03-11 16:44:00,47.8,46.2,29.48,SSE,153,12.0,20.0,94,0.00,,,0.17,Wunderground v.1.15,2013-03-11 20:44:00,
2013-03-11 16:45:00,47.8,46.2,29.48,SE,135,12.0,20.0,94,0.00,,,0.17,Wunderground v.1.15,2013-03-11 20:45:00,
2013-03-11 16:48:00,47.8,46.2,29.48,ESE,102,13.0,20.0,94,0.00,,,0.17,Wunderground v.1.15,2013-03-11 20:48:00,
2013-03-11 16:49:00,47.9,46.3,29.48,SSE,166,13.0,16.0,94,0.00,,,0.17,Wunderground v.1.15,2013-03-11 20:49:00,
2013-03-11 16:50:00,47.9,46.5,29.48,SE,132,13.0,16.0,95,0.00,,,0.18,Wunderground v.1.15,2013-03-11 20:50:00,
2013-03-11 16:52:00,47.8,46.2,29.48,SE,134,13.0,16.0,94,0.00,,,0.18,Wunderground v.1.15,2013-03-11 20:52:00,
2013-03-11 16:55:00,47.7,46.1,29.48,South,190,12.0,16.0,94,0.00,,,0.18,Wunderground v.1.15,2013-03-11 20:55:00,
2013-03-11 16:57:00,47.7,46.1,29.48,SE,143,12.0,17.0,94,0.00,,,0.18,Wunderground v.1.15,2013-03-11 20:57:00,
2013-03-11 17:01:00,47.7,46.3,29.47,South,180,13.0,13.0,95,0.06,,,0.19,Wunderground v.1.15,2013-03-11 21:01:00,
2013-03-11 17:02:00,47.6,46.0,29.47,South,187,13.0,14.0,94,0.06,,,0.19,Wunderground v.1.15,2013-03-11 21:02:00,
2013-03-11 17:05:00,47.7,46.3,29.48,SSW,207,12.0,14.0,95,0.06,,,0.19,Wunderground v.1.15,2013-03-11 21:05:00,
2013-03-11 17:07:00,47.7,46.3,29.48,SW,227,12.0,14.0,95,0.06,,,0.19,Wunderground v.1.15,2013-03-11 21:07:00,
2013-03-11 17:08:00,47.7,46.1,29.48,SW,223,12.0,15.0,94,0.06,,,0.19,Wunderground v.1.15,2013-03-11 21:08:00,
2013-03-11 17:10:00,47.7,46.1,29.48,SW,220,12.0,19.0,94,0.05,,,0.19,Wunderground v.1.15,2013-03-11 21:10:00,
2013-03-11 17:12:00,47.6,45.7,29.48,SW,234,13.0,19.0,93,0.04,,,0.19,Wunderground v.1.15,2013-03-11 21:12:00,
2013-03-11 17:13:00,47.7,46.1,29.48,WSW,239,13.0,19.0,94,0.04,,,0.19,Wunderground v.1.15,2013-03-11 21:13:00,
2013-03-11 17:14:00,47.9,46.3,29.48,WSW,237,13.0,19.0,94,0.04,,,0.19,Wunderground v.1.15,2013-03-11 21:14:00,
2013-03-11 17:16:00,47.9,45.7,29.48,WSW,248,14.0,19.0,92,0.04,,,0.19,Wunderground v.1.15,2013-03-11 21:16:00,
2013-03-11 17:17:00,47.9,45.4,29.48,West,276,15.0,19.0,91,0.00,,,0.19,Wunderground v.1.15,2013-03-11 21:17:00,
2013-03-11 17:18:00,47.9,45.4,29.48,WSW,246,15.0,20.0,91,0.00,,,0.19,Wunderground v.1.15,2013-03-11 21:18:00,
2013-03-11 17:23:00,47.3,44.5,29.49,WSW,244,16.0,18.0,90,0.00,,,0.19,Wunderground v.1.15,2013-03-11 21:23:00,
2013-03-11 17:24:00,47.0,43.9,29.49,West,270,16.0,18.0,89,0.00,,,0.19,Wunderground v.1.15,2013-03-11 21:24:00,
2013-03-11 17:26:00,46.8,44.0,29.50,West,262,16.0,18.0,90,0.00,,,0.19,Wunderground v.1.15,2013-03-11 21:26:00,
2013-03-11 17:28:00,46.8,44.9,29.50,West,269,15.0,18.0,93,0.00,,,0.19,Wunderground v.1.15,2013-03-11 21:28:00,
2013-03-11 17:30:00,46.8,44.6,29.50,WSW,239,15.0,15.0,92,0.00,,,0.19,Wunderground v.1.15,2013-03-11 21:30:00,
2013-03-11 17:31:00,46.7,44.2,29.50,WSW,251,14.0,18.0,91,0.00,,,0.19,Wunderground v.1.15,2013-03-11 21:31:00,
2013-03-11 17:36:00,46.7,44.5,29.51,WSW,249,15.0,18.0,92,0.00,,,0.19,Wunderground v.1.15,2013-03-11 21:36:00,
2013-03-11 17:37:00,46.6,44.1,29.50,WSW,237,15.0,18.0,91,0.00,,,0.19,Wunderground v.1.15,2013-03-11 21:37:00,
2013-03-11 17:38:00,46.5,44.3,29.50,WSW,241,14.0,18.0,92,0.00,,,0.19,Wunderground v.1.15,2013-03-11 21:38:00,
2013-03-11 17:42:00,46.3,44.1,29.51,WSW,251,14.0,17.0,92,0.00,,,0.19,Wunderground v.1.15,2013-03-11 21:42:00,
2013-03-11 17:45:00,46.1,44.2,29.51,WNW,289,13.0,17.0,93,0.00,,,0.19,Wunderground v.1.15,2013-03-11 21:45:00,
2013-03-11 17:46:00,46.1,44.2,29.51,West,269,12.0,17.0,93,0.00,,,0.19,Wunderground v.1.15,2013-03-11 21:46:00,
2013-03-11 17:49:00,46.3,44.4,29.50,West,263,12.0,17.0,93,0.00,,,0.19,Wunderground v.1.15,2013-03-11 21:49:00,
2013-03-11 17:50:00,46.6,44.7,29.50,West,274,12.0,16.0,93,0.00,,,0.19,Wunderground v.1.15,2013-03-11 21:50:00,
2013-03-11 17:52:00,46.7,43.9,29.50,WNW,286,12.0,16.0,90,0.00,,,0.19,Wunderground v.1.15,2013-03-11 21:52:00,
2013-03-11 17:53:00,46.8,44.3,29.50,WSW,249,13.0,16.0,91,0.00,,,0.19,Wunderground v.1.15,2013-03-11 21:53:00,
2013-03-11 17:55:00,47.0,44.5,29.51,SW,225,13.0,16.0,91,0.00,,,0.19,Wunderground v.1.15,2013-03-11 21:55:00,
2013-03-11 17:58:00,46.9,43.8,29.51,SW,227,12.0,16.0,89,0.00,,,0.19,Wunderground v.1.15,2013-03-11 21:58:00,
2013-03-11 17:59:00,46.8,44.0,29.51,SW,216,12.0,12.0,90,0.00,,,0.19,Wunderground v.1.15,2013-03-11 21:59:00,
2013-03-11 18:03:00,46.8,44.3,29.51,SW,216,10.0,12.0,91,0.00,,,0.19,Wunderground v.1.15,2013-03-11 22:03:00,
2013-03-11 18:08:00,47.1,44.0,29.51,West,263,10.0,12.0,89,0.00,,,0.19,Wunderground v.1.15,2013-03-11 22:08:00,
2013-03-11 18:10:00,46.9,43.8,29.51,SSW,206,10.0,10.0,89,0.00,,,0.19,Wunderground v.1.15,2013-03-11 22:10:00,
2013-03-11 18:14:00,47.1,44.0,29.51,WSW,256,10.0,12.0,89,0.00,,,0.19,Wunderground v.1.15,2013-03-11 22:14:00,
2013-03-11 18:20:00,47.2,44.4,29.51,SSW,213,9.0,9.0,90,0.00,,,0.19,Wunderground v.1.15,2013-03-11 22:20:00,
2013-03-11 18:21:00,47.0,43.6,29.51,WSW,249,9.0,9.0,88,0.00,,,0.19,Wunderground v.1.15,2013-03-11 22:21:00,
2013-03-11 18:22:00,46.8,43.4,29.51,SW,234,9.0,11.0,88,0.00,,,0.19,Wunderground v.1.15,2013-03-11 22:22:00,
2013-03-11 18:26:00,46.6,43.5,29.51,WSW,248,9.0,11.0,89,0.00,,,0.19,Wunderground v.1.15,2013-03-11 22:26:00,
2013-03-11 18:28:00,46.6,43.5,29.52,WSW,255,8.0,11.0,89,0.00,,,0.19,Wunderground v.1.15,2013-03-11 22:28:00,
2013-03-11 18:29:00,46.4,43.0,29.52,West,262,8.0,9.0,88,0.00,,,0.19,Wunderground v.1.15,2013-03-11 22:29:00,
2013-03-11 18:35:00,46.4,43.6,29.52,WSW,237,8.0,9.0,90,0.00,,,0.19,Wunderground v.1.15,2013-03-11 22:35:00,
2013-03-11 18:36:00,46.3,43.2,29.52,SSW,194,9.0,9.0,89,0.00,,,0.19,Wunderground v.1.15,2013-03-11 22:36:00,
2013-03-11 18:39:00,46.4,43.3,29.52,WSW,252,10.0,14.0,89,0.00,,,0.19,Wunderground v.1.15,2013-03-11 22:39:00,
2013-03-11 18:40:00,46.5,43.4,29.52,SW,236,10.0,14.0,89,0.00,,,0.19,Wunderground v.1.15,2013-03-11 22:40:00,
2013-03-11 18:42:00,46.5,43.1,29.52,SW,227,10.0,14.0,88,0.00,,,0.19,Wunderground v.1.15,2013-03-11 22:42:00,
2013-03-11 18:47:00,46.4,43.0,29.52,WSW,258,11.0,14.0,88,0.00,,,0.19,Wunderground v.1.15,2013-03-11 22:47:00,
2013-03-11 18:51:00,46.4,42.7,29.52,WSW,243,10.0,11.0,87,0.00,,,0.19,Wunderground v.1.15,2013-03-11 22:51:00,
2013-03-11 18:52:00,46.2,42.5,29.52,WSW,258,10.0,13.0,87,0.00,,,0.19,Wunderground v.1.15,2013-03-11 22:52:00,
2013-03-11 18:53:00,46.1,42.4,29.52,WSW,248,10.0,13.0,87,0.00,,,0.19,Wunderground v.1.15,2013-03-11 22:53:00,
2013-03-11 18:54:00,46.1,42.7,29.52,WSW,241,11.0,16.0,88,0.00,,,0.19,Wunderground v.1.15,2013-03-11 22:54:00,
2013-03-11 18:58:00,46.4,43.0,29.52,WSW,243,13.0,21.0,88,0.00,,,0.19,Wunderground v.1.15,2013-03-11 22:58:00,
2013-03-11 18:59:00,46.5,42.8,29.53,West,277,14.0,14.0,87,0.00,,,0.19,Wunderground v.1.15,2013-03-11 22:59:00,
2013-03-11 19:01:00,46.5,42.2,29.53,WSW,238,14.0,17.0,85,0.00,,,0.19,Wunderground v.1.15,2013-03-11 23:01:00,
2013-03-11 19:07:00,46.3,42.0,29.53,WSW,255,15.0,17.0,85,0.00,,,0.19,Wunderground v.1.15,2013-03-11 23:07:00,
2013-03-11 19:08:00,46.2,41.3,29.53,WSW,246,15.0,21.0,83,0.00,,,0.19,Wunderground v.1.15,2013-03-11 23:08:00,
2013-03-11 19:09:00,46.2,41.0,29.53,WSW,238,15.0,19.0,82,0.00,,,0.19,Wunderground v.1.15,2013-03-11 23:09:00,
2013-03-11 19:13:00,46.1,40.3,29.53,West,280,16.0,19.0,80,0.00,,,0.19,Wunderground v.1.15,2013-03-11 23:13:00,
2013-03-11 19:14:00,46.2,40.4,29.53,SW,234,16.0,19.0,80,0.00,,,0.19,Wunderground v.1.15,2013-03-11 23:14:00,
2013-03-11 19:15:00,46.2,40.0,29.53,WSW,241,16.0,19.0,79,0.00,,,0.19,Wunderground v.1.15,2013-03-11 23:15:00,
2013-03-11 19:16:00,46.3,40.1,29.53,West,263,16.0,19.0,79,0.00,,,0.19,Wunderground v.1.15,2013-03-11 23:16:00,
2013-03-11 19:20:00,46.2,40.0,29.53,West,264,15.0,16.0,79,0.00,,,0.19,Wunderground v.1.15,2013-03-11 23:20:00,
2013-03-11 19:21:00,46.0,39.5,29.53,WSW,238,15.0,16.0,78,0.00,,,0.19,Wunderground v.1.15,2013-03-11 23:21:00,
2013-03-11 19:23:00,45.8,39.7,29.54,West,262,15.0,16.0,79,0.00,,,0.19,Wunderground v.1.15,2013-03-11 23:23:00,
2013-03-11 19:26:00,45.4,39.6,29.54,West,265,14.0,17.0,80,0.00,,,0.19,Wunderground v.1.15,2013-03-11 23:26:00,
2013-03-11 19:28:00,45.5,40.0,29.54,SW,235,14.0,17.0,81,0.00,,,0.19,Wunderground v.1.15,2013-03-11 23:28:00,
2013-03-11 19:32:00,45.5,39.7,29.54,WSW,257,12.0,14.0,80,0.00,,,0.19,Wunderground v.1.15,2013-03-11 23:32:00,
2013-03-11 19:33:00,45.5,39.7,29.54,SSW,212,12.0,16.0,80,0.00,,,0.19,Wunderground v.1.15,2013-03-11 23:33:00,
2013-03-11 19:38:00,45.3,39.2,29.54,SSW,196,13.0,16.0,79,0.00,,,0.19,Wunderground v.1.15,2013-03-11 23:38:00,
2013-03-11 19:40:00,45.3,39.2,29.54,WSW,244,13.0,15.0,79,0.00,,,0.19,Wunderground v.1.15,2013-03-11 23:40:00,
2013-03-11 19:43:00,45.2,39.1,29.54,WSW,242,13.0,19.0,79,0.00,,,0.19,Wunderground v.1.15,2013-03-11 23:43:00,
2013-03-11 19:45:00,45.2,38.7,29.54,WSW,241,14.0,19.0,78,0.00,,,0.19,Wunderground v.1.15,2013-03-11 23:45:00,
2013-03-11 19:46:00,45.3,38.8,29.54,WSW,256,14.0,19.0,78,0.00,,,0.19,Wunderground v.1.15,2013-03-11 23:46:00,
2013-03-11 19:49:00,44.9,38.5,29.54,West,270,14.0,19.0,78,0.00,,,0.19,Wunderground v.1.15,2013-03-11 23:49:00,
2013-03-11 19:51:00,44.8,38.7,29.55,SSW,203,14.0,18.0,79,0.00,,,0.19,Wunderground v.1.15,2013-03-11 23:51:00,
2013-03-11 19:54:00,44.9,38.8,29.55,WNW,285,15.0,20.0,79,0.00,,,0.19,Wunderground v.1.15,2013-03-11 23:54:00,
2013-03-11 19:55:00,44.9,38.5,29.55,West,259,15.0,23.0,78,0.00,,,0.19,Wunderground v.1.15,2013-03-11 23:55:00,
2013-03-11 19:59:00,44.8,38.4,29.55,WSW,258,17.0,18.0,78,0.00,,,0.19,Wunderground v.1.15,2013-03-11 23:59:00,
2013-03-11 20:01:00,44.5,38.1,29.55,WSW,244,18.0,18.0,78,0.00,,,0.19,Wunderground v.1.15,2013-03-12 00:01:00,
2013-03-11 20:04:00,44.3,38.2,29.56,WSW,241,17.0,18.0,79,0.00,,,0.19,Wunderground v.1.15,2013-03-12 00:04:00,
2013-03-11 20:06:00,44.0,38.2,29.56,WSW,237,16.0,18.0,80,0.00,,,0.19,Wunderground v.1.15,2013-03-12 00:06:00,
2013-03-11 20:09:00,43.9,38.4,29.56,WSW,252,15.0,18.0,81,0.00,,,0.19,Wunderground v.1.15,2013-03-12 00:09:00,
2013-03-11 20:10:00,43.9,38.4,29.57,WSW,244,13.0,14.0,81,0.00,,,0.19,Wunderground v.1.15,2013-03-12 00:10:00,
2013-03-11 20:14:00,43.7,38.3,29.57,WSW,245,11.0,14.0,81,0.00,,,0.19,Wunderground v.1.15,2013-03-12 00:14:00,
2013-03-11 20:15:00,43.7,38.3,29.57,WSW,242,11.0,14.0,81,0.00,,,0.19,Wunderground v.1.15,2013-03-12 00:15:00,
2013-03-11 20:17:00,43.7,38.6,29.57,SW,230,10.0,14.0,82,0.00,,,0.19,Wunderground v.1.15,2013-03-12 00:17:00,
2013-03-11 20:19:00,43.8,38.3,29.57,SW,216,10.0,11.0,81,0.00,,,0.19,Wunderground v.1.15,2013-03-12 00:19:00,
2013-03-11 20:20:00,43.9,38.4,29.57,SSW,212,11.0,11.0,81,0.00,,,0.19,Wunderground v.1.15,2013-03-12 00:20:00,
2013-03-11 20:23:00,44.0,38.2,29.57,WSW,248,11.0,14.0,80,0.00,,,0.19,Wunderground v.1.15,2013-03-12 00:23:00,
2013-03-11 20:27:00,43.9,38.1,29.57,SW,232,12.0,14.0,80,0.00,,,0.19,Wunderground v.1.15,2013-03-12 00:27:00,
2013-03-11 20:29:00,43.8,38.0,29.57,SW,230,12.0,14.0,80,0.00,,,0.19,Wunderground v.1.15,2013-03-12 00:29:00,
2013-03-11 20:32:00,43.5,37.7,29.57,SW,223,12.0,13.0,80,0.00,,,0.19,Wunderground v.1.15,2013-03-12 00:32:00,
2013-03-11 20:34:00,43.5,37.7,29.57,WSW,255,12.0,17.0,80,0.00,,,0.19,Wunderground v.1.15,2013-03-12 00:34:00,
2013-03-11 20:35:00,43.4,37.6,29.57,West,263,11.0,17.0,80,0.00,,,0.19,Wunderground v.1.15,2013-03-12 00:35:00,
2013-03-11 20:37:00,43.3,37.5,29.57,WSW,256,11.0,17.0,80,0.00,,,0.19,Wunderground v.1.15,2013-03-12 00:37:00,
2013-03-11 20:39:00,43.2,37.8,29.57,SW,219,11.0,11.0,81,0.00,,,0.19,Wunderground v.1.15,2013-03-12 00:39:00,
2013-03-11 20:42:00,43.3,37.2,29.57,WSW,244,12.0,20.0,79,0.00,,,0.19,Wunderground v.1.15,2013-03-12 00:42:00,
2013-03-11 20:44:00,43.3,37.2,29.57,West,262,13.0,20.0,79,0.00,,,0.19,Wunderground v.1.15,2013-03-12 00:44:00,
2013-03-11 20:48:00,43.1,36.7,29.57,WSW,252,16.0,26.0,78,0.00,,,0.19,Wunderground v.1.15,2013-03-12 00:48:00,
2013-03-11 20:49:00,42.9,36.5,29.57,WSW,244,17.0,20.0,78,0.00,,,0.19,Wunderground v.1.15,2013-03-12 00:49:00,
2013-03-11 20:52:00,43.0,36.6,29.57,SW,228,18.0,24.0,78,0.00,,,0.19,Wunderground v.1.15,2013-03-12 00:52:00,
2013-03-11 20:54:00,42.9,36.2,29.57,WSW,242,19.0,24.0,77,0.00,,,0.19,Wunderground v.1.15,2013-03-12 00:54:00,
2013-03-11 20:56:00,42.8,36.1,29.57,WNW,292,19.0,24.0,77,0.00,,,0.19,Wunderground v.1.15,2013-03-12 00:56:00,
2013-03-11 20:57:00,42.6,36.2,29.57,SW,227,18.0,24.0,78,0.00,,,0.19,Wunderground v.1.15,2013-03-12 00:57:00,
2013-03-11 20:58:00,42.5,36.1,29.57,WSW,242,18.0,24.0,78,0.00,,,0.19,Wunderground v.1.15,2013-03-12 00:58:00,
2013-03-11 21:01:00,42.6,35.9,29.58,SW,231,18.0,19.0,77,0.00,,,0.19,Wunderground v.1.15,2013-03-12 01:01:00,
2013-03-11 21:03:00,42.5,35.8,29.57,West,260,18.0,19.0,77,0.00,,,0.19,Wunderground v.1.15,2013-03-12 01:03:00,
2013-03-11 21:08:00,42.4,35.7,29.58,WSW,256,19.0,24.0,77,0.00,,,0.19,Wunderground v.1.15,2013-03-12 01:08:00,
2013-03-11 21:10:00,42.2,35.8,29.59,WSW,249,18.0,20.0,78,0.00,,,0.19,Wunderground v.1.15,2013-03-12 01:10:00,
2013-03-11 21:13:00,42.3,35.6,29.59,WSW,250,19.0,25.0,77,0.00,,,0.19,Wunderground v.1.15,2013-03-12 01:13:00,
2013-03-11 21:17:00,42.4,35.7,29.58,West,263,18.0,25.0,77,0.00,,,0.19,Wunderground v.1.15,2013-03-12 01:17:00,
2013-03-11 21:18:00,42.3,35.3,29.59,SSW,193,19.0,25.0,76,0.00,,,0.19,Wunderground v.1.15,2013-03-12 01:18:00,
2013-03-11 21:20:00,42.2,35.5,29.59,WSW,245,19.0,20.0,77,0.00,,,0.19,Wunderground v.1.15,2013-03-12 01:20:00,
2013-03-11 21:23:00,41.8,35.4,29.59,NW,306,19.0,22.0,78,0.00,,,0.19,Wunderground v.1.15,2013-03-12 01:23:00,
2013-03-11 21:24:00,41.9,35.5,29.59,WSW,258,19.0,23.0,78,0.00,,,0.19,Wunderground v.1.15,2013-03-12 01:24:00,
2013-03-11 21:28:00,41.8,35.4,29.59,East,101,19.0,23.0,78,0.00,,,0.19,Wunderground v.1.15,2013-03-12 01:28:00,
2013-03-11 21:29:00,41.6,35.6,29.59,WSW,247,18.0,18.0,79,0.00,,,0.19,Wunderground v.1.15,2013-03-12 01:29:00,
2013-03-11 21:30:00,41.5,35.5,29.59,WSW,251,17.0,18.0,79,0.00,,,0.19,Wunderground v.1.15,2013-03-12 01:30:00,
2013-03-11 21:31:00,41.5,35.5,29.59,WNW,289,17.0,18.0,79,0.00,,,0.19,Wunderground v.1.15,2013-03-12 01:31:00,
2013-03-11 21:35:00,41.5,35.8,29.59,WSW,241,14.0,18.0,80,0.00,,,0.19,Wunderground v.1.15,2013-03-12 01:35:00,
2013-03-11 21:36:00,41.6,35.9,29.59,West,261,14.0,21.0,80,0.00,,,0.19,Wunderground v.1.15,2013-03-12 01:36:00,
2013-03-11 21:39:00,41.4,35.7,29.60,SSW,213,14.0,14.0,80,0.00,,,0.19,Wunderground v.1.15,2013-03-12 01:39:00,
2013-03-11 21:40:00,41.3,35.6,29.60,WSW,256,14.0,17.0,80,0.00,,,0.19,Wunderground v.1.15,2013-03-12 01:40:00,
2013-03-11 21:42:00,41.2,35.8,29.60,WSW,256,14.0,17.0,81,0.00,,,0.19,Wunderground v.1.15,2013-03-12 01:42:00,
2013-03-11 21:45:00,41.2,35.8,29.60,WSW,255,15.0,19.0,81,0.00,,,0.19,Wunderground v.1.15,2013-03-12 01:45:00,
2013-03-11 21:47:00,41.1,35.7,29.60,SW,223,15.0,22.0,81,0.00,,,0.19,Wunderground v.1.15,2013-03-12 01:47:00,
2013-03-11 21:49:00,41.1,35.7,29.60,WSW,250,16.0,22.0,81,0.00,,,0.19,Wunderground v.1.15,2013-03-12 01:49:00,
2013-03-11 21:52:00,41.0,35.6,29.60,WSW,252,17.0,17.0,81,0.00,,,0.19,Wunderground v.1.15,2013-03-12 01:52:00,
2013-03-11 21:53:00,40.9,35.5,29.60,WSW,248,16.0,23.0,81,0.00,,,0.19,Wunderground v.1.15,2013-03-12 01:53:00,
2013-03-11 21:55:00,40.7,35.3,29.60,West,266,16.0,23.0,81,0.00,,,0.19,Wunderground v.1.15,2013-03-12 01:55:00,
2013-03-11 21:58:00,40.5,35.4,29.60,WSW,246,16.0,23.0,82,0.00,,,0.19,Wunderground v.1.15,2013-03-12 01:58:00,
2013-03-11 21:59:00,40.3,35.2,29.61,WSW,237,16.0,20.0,82,0.00,,,0.19,Wunderground v.1.15,2013-03-12 01:59:00,
2013-03-11 22:04:00,40.1,35.0,29.61,SW,228,19.0,26.0,82,0.00,,,0.19,Wunderground v.1.15,2013-03-12 02:04:00,
2013-03-11 22:06:00,40.1,35.0,29.61,WSW,239,20.0,26.0,82,0.00,,,0.19,Wunderground v.1.15,2013-03-12 02:06:00,
2013-03-11 22:07:00,39.9,35.2,29.62,WSW,246,19.0,26.0,83,0.00,,,0.19,Wunderground v.1.15,2013-03-12 02:07:00,
2013-03-11 22:10:00,39.6,34.9,29.62,SW,218,19.0,25.0,83,0.00,,,0.19,Wunderground v.1.15,2013-03-12 02:10:00,
2013-03-11 22:12:00,39.4,35.0,29.62,WSW,242,19.0,25.0,84,0.00,,,0.19,Wunderground v.1.15,2013-03-12 02:12:00,
2013-03-11 22:14:00,39.3,34.9,29.62,SW,228,18.0,25.0,84,0.00,,,0.19,Wunderground v.1.15,2013-03-12 02:14:00,
2013-03-11 22:15:00,39.2,34.8,29.62,WSW,252,17.0,25.0,84,0.00,,,0.19,Wunderground v.1.15,2013-03-12 02:15:00,
2013-03-11 22:17:00,39.1,34.7,29.62,West,273,17.0,25.0,84,0.00,,,0.19,Wunderground v.1.15,2013-03-12 02:17:00,
2013-03-11 22:21:00,39.1,34.4,29.63,SW,219,17.0,18.0,83,0.00,,,0.19,Wunderground v.1.15,2013-03-12 02:21:00,
2013-03-11 22:22:00,39.1,34.4,29.63,SSW,203,17.0,18.0,83,0.00,,,0.19,Wunderground v.1.15,2013-03-12 02:22:00,
2013-03-11 22:26:00,39.1,34.4,29.63,SSW,210,17.0,24.0,83,0.00,,,0.19,Wunderground v.1.15,2013-03-12 02:26:00,
2013-03-11 22:27:00,39.1,34.1,29.64,SW,223,17.0,24.0,82,0.00,,,0.19,Wunderground v.1.15,2013-03-12 02:27:00,
2013-03-11 22:31:00,39.0,34.0,29.64,SSW,195,17.0,18.0,82,0.00,,,0.19,Wunderground v.1.15,2013-03-12 02:31:00,
2013-03-11 22:32:00,39.0,34.0,29.64,West,262,17.0,22.0,82,0.00,,,0.19,Wunderground v.1.15,2013-03-12 02:32:00,
2013-03-11 22:36:00,38.9,33.9,29.64,SSW,210,16.0,22.0,82,0.00,,,0.19,Wunderground v.1.15,2013-03-12 02:36:00,
2013-03-11 22:37:00,38.9,33.9,29.64,SSW,200,16.0,22.0,82,0.00,,,0.19,Wunderground v.1.15,2013-03-12 02:37:00,
2013-03-11 22:40:00,38.8,33.8,29.64,WSW,246,15.0,19.0,82,0.00,,,0.19,Wunderground v.1.15,2013-03-12 02:40:00,
2013-03-11 22:43:00,38.7,33.7,29.64,West,263,14.0,19.0,82,0.00,,,0.19,Wunderground v.1.15,2013-03-12 02:43:00,
2013-03-11 22:44:00,38.7,33.7,29.65,SW,227,15.0,19.0,82,0.00,,,0.19,Wunderground v.1.15,2013-03-12 02:44:00,
2013-03-11 22:45:00,38.6,33.6,29.65,WSW,241,15.0,19.0,82,0.00,,,0.19,Wunderground v.1.15,2013-03-12 02:45:00,
2013-03-11 22:48:00,38.6,33.6,29.64,SW,217,15.0,19.0,82,0.00,,,0.19,Wunderground v.1.15,2013-03-12 02:48:00,
2013-03-11 22:50:00,38.6,33.6,29.64,West,259,15.0,19.0,82,0.00,,,0.19,Wunderground v.1.15,2013-03-12 02:50:00,
2013-03-11 22:52:00,38.5,33.5,29.65,SW,232,16.0,19.0,82,0.00,,,0.19,Wunderground v.1.15,2013-03-12 02:52:00,
2013-03-11 22:54:00,38.5,33.5,29.65,West,259,16.0,23.0,82,0.00,,,0.19,Wunderground v.1.15,2013-03-12 02:54:00,
2013-03-11 22:55:00,38.5,33.5,29.65,WSW,239,16.0,23.0,82,0.00,,,0.19,Wunderground v.1.15,2013-03-12 02:55:00,
2013-03-11 23:01:00,38.4,33.4,29.65,West,262,16.0,17.0,82,0.00,,,0.19,Wunderground v.1.15,2013-03-12 03:01:00,
2013-03-11 23:04:00,38.3,33.6,29.65,SW,223,15.0,17.0,83,0.00,,,0.19,Wunderground v.1.15,2013-03-12 03:04:00,
2013-03-11 23:06:00,38.2,33.5,29.66,SW,225,13.0,17.0,83,0.00,,,0.19,Wunderground v.1.15,2013-03-12 03:06:00,
2013-03-11 23:07:00,38.2,33.5,29.65,WSW,244,13.0,17.0,83,0.00,,,0.19,Wunderground v.1.15,2013-03-12 03:07:00,
2013-03-11 23:09:00,38.2,33.5,29.66,WSW,237,12.0,12.0,83,0.00,,,0.19,Wunderground v.1.15,2013-03-12 03:09:00,
2013-03-11 23:11:00,38.1,33.4,29.66,WSW,237,12.0,13.0,83,0.00,,,0.19,Wunderground v.1.15,2013-03-12 03:11:00,
2013-03-11 23:12:00,38.1,33.4,29.65,SSW,199,12.0,13.0,83,0.00,,,0.19,Wunderground v.1.15,2013-03-12 03:12:00,
2013-03-11 23:16:00,38.1,33.4,29.66,WSW,249,14.0,18.0,83,0.00,,,0.19,Wunderground v.1.15,2013-03-12 03:16:00,
2013-03-11 23:19:00,38.2,33.2,29.65,West,271,16.0,16.0,82,0.00,,,0.19,Wunderground v.1.15,2013-03-12 03:19:00,
2013-03-11 23:22:00,38.2,33.2,29.66,WSW,237,16.0,18.0,82,0.00,,,0.19,Wunderground v.1.15,2013-03-12 03:22:00,
2013-03-11 23:23:00,38.2,33.2,29.66,West,261,17.0,18.0,82,0.00,,,0.19,Wunderground v.1.15,2013-03-12 03:23:00,
2013-03-11 23:24:00,38.2,33.2,29.66,SW,232,17.0,18.0,82,0.00,,,0.19,Wunderground v.1.15,2013-03-12 03:24:00,
2013-03-11 23:27:00,38.1,33.1,29.66,West,273,16.0,18.0,82,0.00,,,0.19,Wunderground v.1.15,2013-03-12 03:27:00,
2013-03-11 23:29:00,37.9,33.2,29.66,SW,218,15.0,15.0,83,0.00,,,0.19,Wunderground v.1.15,2013-03-12 03:29:00,
2013-03-11 23:31:00,37.8,33.1,29.66,SSW,207,14.0,15.0,83,0.00,,,0.19,Wunderground v.1.15,2013-03-12 03:31:00,
2013-03-11 23:32:00,37.7,33.0,29.66,SW,227,14.0,15.0,83,0.00,,,0.19,Wunderground v.1.15,2013-03-12 03:32:00,
2013-03-11 23:34:00,37.7,33.0,29.66,SW,223,14.0,16.0,83,0.00,,,0.19,Wunderground v.1.15,2013-03-12 03:34:00,
2013-03-11 23:36:00,37.6,33.2,29.67,SW,233,13.0,16.0,84,0.00,,,0.19,Wunderground v.1.15,2013-03-12 03:36:00,
2013-03-11 23:37:00,37.6,33.2,29.66,WSW,244,13.0,22.0,84,0.00,,,0.19,Wunderground v.1.15,2013-03-12 03:37:00,
2013-03-11 23:40:00,37.7,33.0,29.67,WSW,237,15.0,15.0,83,0.00,,,0.19,Wunderground v.1.15,2013-03-12 03:40:00,
2013-03-11 23:42:00,37.5,33.1,29.67,WSW,237,15.0,16.0,84,0.00,,,0.19,Wunderground v.1.15,2013-03-12 03:42:00,
2013-03-11 23:43:00,37.5,33.1,29.67,WSW,239,15.0,16.0,84,0.00,,,0.19,Wunderground v.1.15,2013-03-12 03:43:00,
2013-03-11 23:45:00,37.5,33.1,29.67,WSW,256,15.0,17.0,84,0.00,,,0.19,Wunderground v.1.15,2013-03-12 03:45:00,
2013-03-11 23:49:00,37.6,32.9,29.67,WSW,246,15.0,15.0,83,0.00,,,0.19,Wunderground v.1.15,2013-03-12 03:49:00,
2013-03-11 23:50:00,37.6,32.9,29.67,SW,221,15.0,15.0,83,0.00,,,0.19,Wunderground v.1.15,2013-03-12 03:50:00,
2013-03-11 23:51:00,37.6,32.9,29.67,WSW,254,14.0,16.0,83,0.00,,,0.19,Wunderground v.1.15,2013-03-12 03:51:00,
2013-03-11 23:55:00,37.6,32.9,29.67,West,260,14.0,17.0,83,0.00,,,0.19,Wunderground v.1.15,2013-03-12 03:55:00,
2013-03-11 23:56:00,37.6,32.9,29.67,WSW,258,14.0,17.0,83,0.00,,,0.19,Wunderground v.1.15,2013-03-12 03:56:00,
2013-03-11 23:58:00,37.6,32.9,29.67,SW,235,13.0,17.0,83,0.00,,,0.19,Wunderground v.1.15,2013-03-12 03:58:00,